2016 Cux-Wetter.de -Die Nutzung der Wetterdaten nur mit ausdrcklicher Genehmigung
Wetterdaten: Mittwoch, 19.07.2017
Datum Zeit Temp. A. Feuchte A. Luftdruck Regen Wind Richtung Richtung Sonnenschein Solar Taupunkt Windchill Windben
19.07.2017 00:00 16,8 C 89 % 1017,3 hPa 0,0 l/m 1,8 km/h (1 Bft) N-NO 19 0 min 0 W/m 15,0 C 16,8 C 4,8 km/h (1 Bft)
19.07.2017 00:03 16,8 C 89 % 1017,3 hPa 0,0 l/m 2,4 km/h (1 Bft) N 9 0 min 0 W/m 15,0 C 16,8 C 6,4 km/h (2 Bft)
19.07.2017 00:06 16,8 C 89 % 1017,3 hPa 0,0 l/m 2,7 km/h (1 Bft) N-NO 17 0 min 0 W/m 15,0 C 16,8 C 9,7 km/h (2 Bft)
19.07.2017 00:09 16,7 C 89 % 1017,3 hPa 0,0 l/m 1,5 km/h (1 Bft) N-NO 17 0 min 0 W/m 14,9 C 16,7 C 3,2 km/h (1 Bft)
19.07.2017 00:12 16,7 C 89 % 1017,3 hPa 0,0 l/m 2,1 km/h (1 Bft) N-NW 332 0 min 0 W/m 14,9 C 16,7 C 6,4 km/h (2 Bft)
19.07.2017 00:15 16,6 C 89 % 1017,3 hPa 0,0 l/m 1,0 km/h (0 Bft) NO 51 0 min 0 W/m 14,8 C 16,6 C 3,2 km/h (1 Bft)
19.07.2017 00:18 16,6 C 90 % 1017,3 hPa 0,0 l/m 1,5 km/h (1 Bft) N-NW 346 0 min 0 W/m 15,0 C 16,6 C 6,4 km/h (2 Bft)
19.07.2017 00:21 16,6 C 90 % 1017,3 hPa 0,0 l/m 3,0 km/h (1 Bft) O-SO 113 0 min 0 W/m 15,0 C 16,6 C 6,4 km/h (2 Bft)
19.07.2017 00:24 16,6 C 90 % 1017,4 hPa 0,0 l/m 3,0 km/h (1 Bft) N-NO 26 0 min 0 W/m 15,0 C 16,6 C 8,0 km/h (2 Bft)
19.07.2017 00:27 16,6 C 90 % 1017,2 hPa 0,0 l/m 2,6 km/h (1 Bft) NO 49 0 min 0 W/m 15,0 C 16,6 C 6,4 km/h (2 Bft)
19.07.2017 00:30 16,6 C 90 % 1017,3 hPa 0,0 l/m 2,9 km/h (1 Bft) O-NO 71 0 min 0 W/m 15,0 C 16,6 C 6,4 km/h (2 Bft)
19.07.2017 00:33 16,5 C 90 % 1017,2 hPa 0,0 l/m 2,4 km/h (1 Bft) S-SO 155 0 min 0 W/m 14,9 C 16,5 C 8,0 km/h (2 Bft)
19.07.2017 00:36 16,4 C 90 % 1017,3 hPa 0,0 l/m 1,6 km/h (1 Bft) N 5 0 min 0 W/m 14,8 C 16,4 C 4,8 km/h (1 Bft)
19.07.2017 00:39 16,4 C 90 % 1017,3 hPa 0,0 l/m 3,3 km/h (1 Bft) O 83 0 min 0 W/m 14,8 C 16,4 C 8,0 km/h (2 Bft)
19.07.2017 00:42 16,3 C 90 % 1017,3 hPa 0,0 l/m 3,0 km/h (1 Bft) O 100 0 min 0 W/m 14,7 C 16,3 C 11,3 km/h (2 Bft)
19.07.2017 00:45 16,3 C 90 % 1017,2 hPa 0,0 l/m 1,6 km/h (1 Bft) O 80 0 min 0 W/m 14,7 C 16,3 C 4,8 km/h (1 Bft)
19.07.2017 00:48 16,3 C 90 % 1017,2 hPa 0,0 l/m 2,3 km/h (1 Bft) O 86 0 min 0 W/m 14,7 C 16,3 C 6,4 km/h (2 Bft)
19.07.2017 00:51 16,2 C 90 % 1017,2 hPa 0,0 l/m 2,8 km/h (1 Bft) O 92 0 min 0 W/m 14,6 C 16,2 C 9,7 km/h (2 Bft)
19.07.2017 00:54 16,2 C 89 % 1017,2 hPa 0,0 l/m 3,8 km/h (1 Bft) O 91 0 min 0 W/m 14,4 C 16,2 C 11,3 km/h (2 Bft)
19.07.2017 00:57 16,2 C 89 % 1017,2 hPa 0,0 l/m 2,6 km/h (1 Bft) O 80 0 min 0 W/m 14,4 C 16,2 C 6,4 km/h (2 Bft)
19.07.2017 01:00 16,2 C 89 % 1017,2 hPa 0,0 l/m 3,2 km/h (1 Bft) O-SO 119 0 min 0 W/m 14,4 C 16,2 C 11,3 km/h (2 Bft)
19.07.2017 01:03 16,1 C 89 % 1017,2 hPa 0,0 l/m 3,5 km/h (1 Bft) SO 131 0 min 0 W/m 14,3 C 16,1 C 9,7 km/h (2 Bft)
19.07.2017 01:06 16,1 C 88 % 1017,3 hPa 0,0 l/m 3,3 km/h (1 Bft) NO 51 0 min 0 W/m 14,1 C 16,1 C 9,7 km/h (2 Bft)
19.07.2017 01:09 16,1 C 88 % 1017,3 hPa 0,0 l/m 3,8 km/h (1 Bft) O-SO 110 0 min 0 W/m 14,1 C 16,1 C 9,7 km/h (2 Bft)
19.07.2017 01:12 16,1 C 88 % 1017,3 hPa 0,0 l/m 3,4 km/h (1 Bft) O 92 0 min 0 W/m 14,1 C 16,1 C 9,7 km/h (2 Bft)
19.07.2017 01:15 16,1 C 88 % 1017,2 hPa 0,0 l/m 1,5 km/h (1 Bft) O 79 0 min 0 W/m 14,1 C 16,1 C 4,8 km/h (1 Bft)
19.07.2017 01:18 16,1 C 88 % 1017,3 hPa 0,0 l/m 3,4 km/h (1 Bft) O 83 0 min 0 W/m 14,1 C 16,1 C 11,3 km/h (2 Bft)
19.07.2017 01:21 16,1 C 88 % 1017,3 hPa 0,0 l/m 1,6 km/h (1 Bft) NO 51 0 min 0 W/m 14,1 C 16,1 C 6,4 km/h (2 Bft)
19.07.2017 01:24 16,0 C 88 % 1017,3 hPa 0,0 l/m 2,9 km/h (1 Bft) O 89 0 min 0 W/m 14,0 C 16,0 C 11,3 km/h (2 Bft)
19.07.2017 01:27 15,9 C 88 % 1017,3 hPa 0,0 l/m 4,9 km/h (1 Bft) O-NO 63 0 min 0 W/m 13,9 C 15,9 C 14,5 km/h (3 Bft)
19.07.2017 01:30 15,9 C 88 % 1017,3 hPa 0,0 l/m 4,1 km/h (1 Bft) O 90 0 min 0 W/m 13,9 C 15,9 C 11,3 km/h (2 Bft)
19.07.2017 01:33 15,8 C 87 % 1017,3 hPa 0,0 l/m 6,2 km/h (2 Bft) O-SO 123 0 min 0 W/m 13,6 C 15,8 C 14,5 km/h (3 Bft)
19.07.2017 01:36 15,8 C 87 % 1017,3 hPa 0,0 l/m 3,7 km/h (1 Bft) O 87 0 min 0 W/m 13,6 C 15,8 C 9,7 km/h (2 Bft)
19.07.2017 01:39 15,8 C 87 % 1017,4 hPa 0,0 l/m 2,0 km/h (1 Bft) O-SO 109 0 min 0 W/m 13,6 C 15,8 C 4,8 km/h (1 Bft)
19.07.2017 01:42 15,7 C 87 % 1017,3 hPa 0,0 l/m 3,2 km/h (1 Bft) O 86 0 min 0 W/m 13,5 C 15,7 C 12,9 km/h (3 Bft)
19.07.2017 01:45 15,7 C 88 % 1017,3 hPa 0,0 l/m 2,3 km/h (1 Bft) NO 46 0 min 0 W/m 13,7 C 15,7 C 6,4 km/h (2 Bft)
19.07.2017 01:48 15,6 C 88 % 1017,4 hPa 0,0 l/m 2,6 km/h (1 Bft) O-SO 107 0 min 0 W/m 13,6 C 15,6 C 6,4 km/h (2 Bft)
19.07.2017 01:51 15,5 C 88 % 1017,4 hPa 0,0 l/m 3,7 km/h (1 Bft) NO 53 0 min 0 W/m 13,5 C 15,5 C 9,7 km/h (2 Bft)
19.07.2017 01:54 15,5 C 88 % 1017,3 hPa 0,0 l/m 2,8 km/h (1 Bft) O-SO 108 0 min 0 W/m 13,5 C 15,5 C 8,0 km/h (2 Bft)
19.07.2017 01:57 15,4 C 88 % 1017,3 hPa 0,0 l/m 2,9 km/h (1 Bft) SW 215 0 min 0 W/m 13,4 C 15,4 C 9,7 km/h (2 Bft)
19.07.2017 02:00 15,4 C 88 % 1017,2 hPa 0,0 l/m 3,5 km/h (1 Bft) O-SO 120 0 min 0 W/m 13,4 C 15,4 C 9,7 km/h (2 Bft)
19.07.2017 02:03 15,4 C 88 % 1017,3 hPa 0,0 l/m 2,9 km/h (1 Bft) SW 219 0 min 0 W/m 13,4 C 15,4 C 6,4 km/h (2 Bft)
19.07.2017 02:06 15,4 C 88 % 1017,2 hPa 0,0 l/m 2,0 km/h (1 Bft) O-NO 61 0 min 0 W/m 13,4 C 15,4 C 6,4 km/h (2 Bft)
19.07.2017 02:09 15,3 C 88 % 1017,2 hPa 0,0 l/m 3,1 km/h (1 Bft) O-NO 65 0 min 0 W/m 13,3 C 15,3 C 8,0 km/h (2 Bft)
19.07.2017 02:12 15,3 C 88 % 1017,2 hPa 0,0 l/m 2,1 km/h (1 Bft) O-SO 104 0 min 0 W/m 13,3 C 15,3 C 4,8 km/h (1 Bft)
19.07.2017 02:15 15,2 C 87 % 1017,2 hPa 0,0 l/m 3,7 km/h (1 Bft) O-SO 105 0 min 0 W/m 13,0 C 15,2 C 9,7 km/h (2 Bft)
19.07.2017 02:18 15,2 C 87 % 1017,1 hPa 0,0 l/m 3,6 km/h (1 Bft) O-SO 117 0 min 0 W/m 13,0 C 15,2 C 11,3 km/h (2 Bft)
19.07.2017 02:21 15,2 C 87 % 1017,2 hPa 0,0 l/m 4,3 km/h (1 Bft) O 86 0 min 0 W/m 13,0 C 15,2 C 14,5 km/h (3 Bft)
19.07.2017 02:24 15,2 C 86 % 1017,1 hPa 0,0 l/m 4,2 km/h (1 Bft) S-SW 205 0 min 0 W/m 12,9 C 15,2 C 11,3 km/h (2 Bft)
19.07.2017 02:27 15,2 C 86 % 1017,2 hPa 0,0 l/m 4,7 km/h (1 Bft) O 94 0 min 0 W/m 12,9 C 15,2 C 16,1 km/h (3 Bft)
19.07.2017 02:30 15,2 C 86 % 1017,1 hPa 0,0 l/m 5,5 km/h (2 Bft) O-SO 107 0 min 0 W/m 12,9 C 15,2 C 14,5 km/h (3 Bft)
19.07.2017 02:33 15,2 C 86 % 1017,1 hPa 0,0 l/m 6,2 km/h (2 Bft) O-SO 123 0 min 0 W/m 12,9 C 15,2 C 14,5 km/h (3 Bft)
19.07.2017 02:36 15,2 C 86 % 1017,1 hPa 0,0 l/m 3,9 km/h (1 Bft) O 82 0 min 0 W/m 12,9 C 15,2 C 8,0 km/h (2 Bft)
19.07.2017 02:39 15,2 C 86 % 1017,1 hPa 0,0 l/m 2,8 km/h (1 Bft) O-NO 67 0 min 0 W/m 12,9 C 15,2 C 8,0 km/h (2 Bft)
19.07.2017 02:42 15,2 C 86 % 1017,1 hPa 0,0 l/m 3,7 km/h (1 Bft) O-NO 77 0 min 0 W/m 12,9 C 15,2 C 8,0 km/h (2 Bft)
19.07.2017 02:45 15,2 C 86 % 1017,1 hPa 0,0 l/m 3,5 km/h (1 Bft) NO 55 0 min 0 W/m 12,9 C 15,2 C 11,3 km/h (2 Bft)
19.07.2017 02:48 15,2 C 86 % 1017,1 hPa 0,0 l/m 3,7 km/h (1 Bft) NO 53 0 min 0 W/m 12,9 C 15,2 C 9,7 km/h (2 Bft)
19.07.2017 02:51 15,2 C 86 % 1017,1 hPa 0,0 l/m 4,1 km/h (1 Bft) O 86 0 min 0 W/m 12,9 C 15,2 C 12,9 km/h (3 Bft)
19.07.2017 02:54 15,2 C 86 % 1017,1 hPa 0,0 l/m 3,6 km/h (1 Bft) O-SO 108 0 min 0 W/m 12,9 C 15,2 C 16,1 km/h (3 Bft)
19.07.2017 02:57 15,1 C 86 % 1017,1 hPa 0,0 l/m 4,1 km/h (1 Bft) O-NO 63 0 min 0 W/m 12,8 C 15,1 C 9,7 km/h (2 Bft)
19.07.2017 03:00 15,1 C 86 % 1017,1 hPa 0,0 l/m 4,3 km/h (1 Bft) O-SO 113 0 min 0 W/m 12,8 C 15,1 C 9,7 km/h (2 Bft)
19.07.2017 03:03 15,1 C 86 % 1017,0 hPa 0,0 l/m 4,0 km/h (1 Bft) O 82 0 min 0 W/m 12,8 C 15,1 C 14,5 km/h (3 Bft)
19.07.2017 03:06 15,1 C 86 % 1017,1 hPa 0,0 l/m 2,9 km/h (1 Bft) O 84 0 min 0 W/m 12,8 C 15,1 C 8,0 km/h (2 Bft)
19.07.2017 03:09 15,0 C 86 % 1017,1 hPa 0,0 l/m 4,1 km/h (1 Bft) O-SO 114 0 min 0 W/m 12,7 C 15,0 C 11,3 km/h (2 Bft)
19.07.2017 03:12 15,0 C 86 % 1017,0 hPa 0,0 l/m 4,1 km/h (1 Bft) O 86 0 min 0 W/m 12,7 C 15,0 C 11,3 km/h (2 Bft)
19.07.2017 03:15 15,0 C 86 % 1017,0 hPa 0,0 l/m 3,3 km/h (1 Bft) SO 145 0 min 0 W/m 12,7 C 15,0 C 6,4 km/h (2 Bft)
19.07.2017 03:18 15,0 C 86 % 1017,0 hPa 0,0 l/m 4,1 km/h (1 Bft) N-NO 16 0 min 0 W/m 12,7 C 15,0 C 8,0 km/h (2 Bft)
19.07.2017 03:21 15,0 C 86 % 1016,9 hPa 0,0 l/m 5,5 km/h (2 Bft) O 84 0 min 0 W/m 12,7 C 15,0 C 12,9 km/h (3 Bft)
19.07.2017 03:24 15,0 C 86 % 1016,9 hPa 0,0 l/m 3,0 km/h (1 Bft) O-NO 69 0 min 0 W/m 12,7 C 15,0 C 9,7 km/h (2 Bft)
19.07.2017 03:27 14,9 C 86 % 1016,9 hPa 0,0 l/m 4,5 km/h (1 Bft) S-SO 155 0 min 0 W/m 12,6 C 14,9 C 11,3 km/h (2 Bft)
19.07.2017 03:30 14,9 C 86 % 1016,9 hPa 0,0 l/m 2,9 km/h (1 Bft) S-SO 159 0 min 0 W/m 12,6 C 14,9 C 9,7 km/h (2 Bft)
19.07.2017 03:33 14,9 C 86 % 1016,8 hPa 0,0 l/m 4,3 km/h (1 Bft) O-SO 121 0 min 0 W/m 12,6 C 14,9 C 12,9 km/h (3 Bft)
19.07.2017 03:36 14,9 C 86 % 1016,8 hPa 0,0 l/m 5,8 km/h (2 Bft) SO 141 0 min 0 W/m 12,6 C 14,9 C 16,1 km/h (3 Bft)
19.07.2017 03:39 14,9 C 86 % 1016,9 hPa 0,0 l/m 4,2 km/h (1 Bft) S-SW 213 0 min 0 W/m 12,6 C 14,9 C 11,3 km/h (2 Bft)
19.07.2017 03:42 14,9 C 86 % 1016,9 hPa 0,0 l/m 4,3 km/h (1 Bft) O-SO 105 0 min 0 W/m 12,6 C 14,9 C 11,3 km/h (2 Bft)
19.07.2017 03:45 14,9 C 86 % 1016,8 hPa 0,0 l/m 3,2 km/h (1 Bft) O 95 0 min 0 W/m 12,6 C 14,9 C 9,7 km/h (2 Bft)
19.07.2017 03:48 14,9 C 86 % 1016,8 hPa 0,0 l/m 3,8 km/h (1 Bft) O 94 0 min 0 W/m 12,6 C 14,9 C 11,3 km/h (2 Bft)
19.07.2017 03:51 14,9 C 86 % 1016,7 hPa 0,0 l/m 3,7 km/h (1 Bft) O-SO 115 0 min 0 W/m 12,6 C 14,9 C 12,9 km/h (3 Bft)
19.07.2017 03:54 14,8 C 86 % 1016,7 hPa 0,0 l/m 4,5 km/h (1 Bft) O 96 0 min 0 W/m 12,5 C 14,8 C 14,5 km/h (3 Bft)
19.07.2017 03:57 14,8 C 86 % 1016,6 hPa 0,0 l/m 4,3 km/h (1 Bft) S-SO 148 0 min 0 W/m 12,5 C 14,8 C 11,3 km/h (2 Bft)
19.07.2017 04:00 14,8 C 86 % 1016,6 hPa 0,0 l/m 3,7 km/h (1 Bft) NO 36 0 min 0 W/m 12,5 C 14,8 C 11,3 km/h (2 Bft)
19.07.2017 04:03 14,8 C 85 % 1016,5 hPa 0,0 l/m 2,6 km/h (1 Bft) O 91 0 min 0 W/m 12,3 C 14,8 C 9,7 km/h (2 Bft)
19.07.2017 04:06 14,8 C 85 % 1016,4 hPa 0,0 l/m 6,0 km/h (2 Bft) O 82 0 min 0 W/m 12,3 C 14,8 C 16,1 km/h (3 Bft)
19.07.2017 04:09 14,8 C 85 % 1016,4 hPa 0,0 l/m 3,5 km/h (1 Bft) O-SO 107 0 min 0 W/m 12,3 C 14,8 C 11,3 km/h (2 Bft)
19.07.2017 04:12 14,7 C 85 % 1016,3 hPa 0,0 l/m 2,2 km/h (1 Bft) N-NO 26 0 min 0 W/m 12,2 C 14,7 C 4,8 km/h (1 Bft)
19.07.2017 04:15 14,7 C 85 % 1016,3 hPa 0,0 l/m 3,6 km/h (1 Bft) SO 128 0 min 0 W/m 12,2 C 14,7 C 11,3 km/h (2 Bft)
19.07.2017 04:18 14,7 C 85 % 1016,3 hPa 0,0 l/m 2,6 km/h (1 Bft) O-SO 120 0 min 0 W/m 12,2 C 14,7 C 6,4 km/h (2 Bft)
19.07.2017 04:21 14,7 C 85 % 1016,2 hPa 0,0 l/m 3,6 km/h (1 Bft) NO 41 0 min 0 W/m 12,2 C 14,7 C 6,4 km/h (2 Bft)
19.07.2017 04:24 14,6 C 85 % 1016,2 hPa 0,0 l/m 1,9 km/h (1 Bft) S-SO 151 0 min 0 W/m 12,1 C 14,6 C 4,8 km/h (1 Bft)
19.07.2017 04:27 14,6 C 85 % 1016,2 hPa 0,0 l/m 1,9 km/h (1 Bft) SO 128 0 min 0 W/m 12,1 C 14,6 C 4,8 km/h (1 Bft)
19.07.2017 04:30 14,6 C 86 % 1016,1 hPa 0,0 l/m 2,9 km/h (1 Bft) O 81 0 min 0 W/m 12,3 C 14,6 C 9,7 km/h (2 Bft)
19.07.2017 04:33 14,5 C 86 % 1016,1 hPa 0,0 l/m 4,2 km/h (1 Bft) NO 50 0 min 0 W/m 12,2 C 14,5 C 11,3 km/h (2 Bft)
19.07.2017 04:36 14,5 C 86 % 1016,1 hPa 0,0 l/m 4,0 km/h (1 Bft) SO 134 0 min 0 W/m 12,2 C 14,5 C 12,9 km/h (3 Bft)
19.07.2017 04:39 14,5 C 86 % 1016,1 hPa 0,0 l/m 3,4 km/h (1 Bft) O-NO 62 0 min 0 W/m 12,2 C 14,5 C 9,7 km/h (2 Bft)
19.07.2017 04:42 14,4 C 86 % 1016,0 hPa 0,0 l/m 2,7 km/h (1 Bft) SO 132 0 min 0 W/m 12,1 C 14,4 C 6,4 km/h (2 Bft)
19.07.2017 04:45 14,5 C 86 % 1016,0 hPa 0,0 l/m 3,4 km/h (1 Bft) O 91 0 min 0 W/m 12,2 C 14,5 C 12,9 km/h (3 Bft)
19.07.2017 04:48 14,4 C 86 % 1015,9 hPa 0,0 l/m 3,4 km/h (1 Bft) O 89 0 min 0 W/m 12,1 C 14,4 C 6,4 km/h (2 Bft)
19.07.2017 04:51 14,4 C 86 % 1015,9 hPa 0,0 l/m 2,9 km/h (1 Bft) O-SO 102 0 min 0 W/m 12,1 C 14,4 C 6,4 km/h (2 Bft)
19.07.2017 04:54 14,4 C 86 % 1015,8 hPa 0,0 l/m 4,0 km/h (1 Bft) S-SO 158 0 min 0 W/m 12,1 C 14,4 C 11,3 km/h (2 Bft)
19.07.2017 04:57 14,4 C 86 % 1015,8 hPa 0,0 l/m 3,6 km/h (1 Bft) SO 126 0 min 0 W/m 12,1 C 14,4 C 12,9 km/h (3 Bft)
19.07.2017 05:00 14,4 C 86 % 1015,9 hPa 0,0 l/m 2,3 km/h (1 Bft) O-NO 70 0 min 0 W/m 12,1 C 14,4 C 4,8 km/h (1 Bft)
19.07.2017 05:03 14,4 C 87 % 1015,9 hPa 0,0 l/m 2,4 km/h (1 Bft) O 79 0 min 0 W/m 12,3 C 14,4 C 4,8 km/h (1 Bft)
19.07.2017 05:06 14,4 C 87 % 1015,8 hPa 0,0 l/m 2,6 km/h (1 Bft) O-SO 112 0 min 0 W/m 12,3 C 14,4 C 6,4 km/h (2 Bft)
19.07.2017 05:09 14,4 C 87 % 1015,8 hPa 0,0 l/m 2,3 km/h (1 Bft) O-SO 105 0 min 0 W/m 12,3 C 14,4 C 6,4 km/h (2 Bft)
19.07.2017 05:12 14,4 C 86 % 1015,8 hPa 0,0 l/m 2,7 km/h (1 Bft) O 80 0 min 0 W/m 12,1 C 14,4 C 9,7 km/h (2 Bft)
19.07.2017 05:15 14,3 C 87 % 1015,8 hPa 0,0 l/m 2,1 km/h (1 Bft) O 101 0 min 0 W/m 12,2 C 14,3 C 4,8 km/h (1 Bft)
19.07.2017 05:18 14,3 C 87 % 1015,7 hPa 0,0 l/m 2,1 km/h (1 Bft) SO 124 0 min 0 W/m 12,2 C 14,3 C 6,4 km/h (2 Bft)
19.07.2017 05:21 14,3 C 87 % 1015,7 hPa 0,0 l/m 3,7 km/h (1 Bft) O-SO 109 0 min 5 W/m 12,2 C 14,3 C 11,3 km/h (2 Bft)
19.07.2017 05:24 14,3 C 87 % 1015,7 hPa 0,0 l/m 3,0 km/h (1 Bft) O-NO 67 0 min 5 W/m 12,2 C 14,3 C 11,3 km/h (2 Bft)
19.07.2017 05:27 14,3 C 87 % 1015,7 hPa 0,0 l/m 2,4 km/h (1 Bft) O-NO 60 0 min 5 W/m 12,2 C 14,3 C 8,0 km/h (2 Bft)
19.07.2017 05:30 14,3 C 87 % 1015,7 hPa 0,0 l/m 2,8 km/h (1 Bft) SO 129 0 min 7 W/m 12,2 C 14,3 C 6,4 km/h (2 Bft)
19.07.2017 05:33 14,4 C 88 % 1015,7 hPa 0,0 l/m 2,8 km/h (1 Bft) O-NO 78 0 min 7 W/m 12,4 C 14,4 C 6,4 km/h (2 Bft)
19.07.2017 05:36 14,4 C 87 % 1015,7 hPa 0,0 l/m 4,0 km/h (1 Bft) NO 42 0 min 9 W/m 12,3 C 14,4 C 9,7 km/h (2 Bft)
19.07.2017 05:39 14,4 C 88 % 1015,7 hPa 0,0 l/m 3,4 km/h (1 Bft) NO 38 0 min 9 W/m 12,4 C 14,4 C 6,4 km/h (2 Bft)
19.07.2017 05:42 14,4 C 87 % 1015,7 hPa 0,0 l/m 3,2 km/h (1 Bft) O-SO 110 0 min 9 W/m 12,3 C 14,4 C 9,7 km/h (2 Bft)
19.07.2017 05:45 14,5 C 87 % 1015,7 hPa 0,0 l/m 3,2 km/h (1 Bft) NW 304 0 min 11 W/m 12,4 C 14,5 C 11,3 km/h (2 Bft)
19.07.2017 05:48 14,5 C 87 % 1015,7 hPa 0,0 l/m 3,1 km/h (1 Bft) O-NO 65 0 min 11 W/m 12,4 C 14,5 C 8,0 km/h (2 Bft)
19.07.2017 05:51 14,5 C 87 % 1015,6 hPa 0,0 l/m 3,4 km/h (1 Bft) O-NO 57 0 min 12 W/m 12,4 C 14,5 C 11,3 km/h (2 Bft)
19.07.2017 05:54 14,5 C 87 % 1015,6 hPa 0,0 l/m 4,0 km/h (1 Bft) O-SO 110 0 min 12 W/m 12,4 C 14,5 C 11,3 km/h (2 Bft)
19.07.2017 05:57 14,5 C 87 % 1015,6 hPa 0,0 l/m 4,4 km/h (1 Bft) O 84 0 min 14 W/m 12,4 C 14,5 C 12,9 km/h (3 Bft)
19.07.2017 06:00 14,6 C 87 % 1015,5 hPa 0,0 l/m 2,7 km/h (1 Bft) NW 325 0 min 16 W/m 12,5 C 14,6 C 6,4 km/h (2 Bft)
19.07.2017 06:03 14,6 C 87 % 1015,6 hPa 0,0 l/m 5,5 km/h (2 Bft) NO 40 0 min 16 W/m 12,5 C 14,6 C 12,9 km/h (3 Bft)
19.07.2017 06:06 14,6 C 87 % 1015,6 hPa 0,0 l/m 4,3 km/h (1 Bft) O 83 0 min 18 W/m 12,5 C 14,6 C 14,5 km/h (3 Bft)
19.07.2017 06:09 14,6 C 87 % 1015,5 hPa 0,0 l/m 4,9 km/h (1 Bft) SO 141 0 min 18 W/m 12,5 C 14,6 C 12,9 km/h (3 Bft)
19.07.2017 06:12 14,6 C 87 % 1015,5 hPa 0,0 l/m 5,1 km/h (1 Bft) O 85 0 min 19 W/m 12,5 C 14,6 C 12,9 km/h (3 Bft)
19.07.2017 06:15 14,7 C 86 % 1015,5 hPa 0,0 l/m 3,0 km/h (1 Bft) O 83 0 min 19 W/m 12,4 C 14,7 C 8,0 km/h (2 Bft)
19.07.2017 06:18 14,7 C 86 % 1015,5 hPa 0,0 l/m 6,3 km/h (2 Bft) O 91 0 min 21 W/m 12,4 C 14,7 C 14,5 km/h (3 Bft)
19.07.2017 06:21 14,8 C 86 % 1015,4 hPa 0,0 l/m 3,5 km/h (1 Bft) SO 140 0 min 21 W/m 12,5 C 14,8 C 8,0 km/h (2 Bft)
19.07.2017 06:24 14,8 C 86 % 1015,4 hPa 0,0 l/m 4,8 km/h (1 Bft) O-SO 108 0 min 23 W/m 12,5 C 14,8 C 17,7 km/h (3 Bft)
19.07.2017 06:27 14,9 C 86 % 1015,4 hPa 0,0 l/m 4,8 km/h (1 Bft) O 90 0 min 23 W/m 12,6 C 14,9 C 11,3 km/h (2 Bft)
19.07.2017 06:30 14,9 C 86 % 1015,3 hPa 0,0 l/m 4,6 km/h (1 Bft) O 80 0 min 25 W/m 12,6 C 14,9 C 12,9 km/h (3 Bft)
19.07.2017 06:33 15,0 C 86 % 1015,3 hPa 0,0 l/m 5,3 km/h (1 Bft) O-SO 104 0 min 25 W/m 12,7 C 15,0 C 11,3 km/h (2 Bft)
19.07.2017 06:36 15,1 C 86 % 1015,3 hPa 0,0 l/m 5,3 km/h (1 Bft) O-SO 112 0 min 25 W/m 12,8 C 15,1 C 14,5 km/h (3 Bft)
19.07.2017 06:39 15,1 C 86 % 1015,3 hPa 0,0 l/m 4,2 km/h (1 Bft) N 355 0 min 26 W/m 12,8 C 15,1 C 12,9 km/h (3 Bft)
19.07.2017 06:42 15,1 C 86 % 1015,4 hPa 0,0 l/m 5,0 km/h (1 Bft) O 100 0 min 26 W/m 12,8 C 15,1 C 12,9 km/h (3 Bft)
19.07.2017 06:45 15,2 C 86 % 1015,3 hPa 0,0 l/m 4,4 km/h (1 Bft) O-NO 61 0 min 28 W/m 12,9 C 15,2 C 11,3 km/h (2 Bft)
19.07.2017 06:48 15,2 C 85 % 1015,4 hPa 0,0 l/m 9,2 km/h (2 Bft) S 180 0 min 28 W/m 12,7 C 13,7 C 20,9 km/h (4 Bft)
19.07.2017 06:51 15,2 C 85 % 1015,3 hPa 0,0 l/m 5,8 km/h (2 Bft) O-NO 68 0 min 30 W/m 12,7 C 15,2 C 17,7 km/h (3 Bft)
19.07.2017 06:54 15,2 C 85 % 1015,3 hPa 0,0 l/m 5,9 km/h (2 Bft) O-SO 110 0 min 30 W/m 12,7 C 15,2 C 17,7 km/h (3 Bft)
19.07.2017 06:57 15,3 C 85 % 1015,1 hPa 0,0 l/m 6,2 km/h (2 Bft) NO 53 0 min 30 W/m 12,8 C 15,3 C 12,9 km/h (3 Bft)
19.07.2017 07:00 15,3 C 85 % 1015,1 hPa 0,0 l/m 7,0 km/h (2 Bft) O-NO 67 0 min 30 W/m 12,8 C 15,0 C 14,5 km/h (3 Bft)
19.07.2017 07:03 15,3 C 85 % 1015,0 hPa 0,0 l/m 4,4 km/h (1 Bft) S-SW 192 0 min 30 W/m 12,8 C 15,3 C 14,5 km/h (3 Bft)
19.07.2017 07:06 15,4 C 85 % 1015,0 hPa 0,0 l/m 6,2 km/h (2 Bft) O-NO 78 0 min 30 W/m 12,9 C 15,4 C 14,5 km/h (3 Bft)
19.07.2017 07:09 15,4 C 85 % 1015,1 hPa 0,0 l/m 4,2 km/h (1 Bft) NO 51 0 min 30 W/m 12,9 C 15,4 C 11,3 km/h (2 Bft)
19.07.2017 07:12 15,4 C 85 % 1015,1 hPa 0,0 l/m 5,4 km/h (2 Bft) O-NO 62 0 min 30 W/m 12,9 C 15,4 C 19,3 km/h (3 Bft)
19.07.2017 07:15 15,5 C 85 % 1015,1 hPa 0,0 l/m 6,0 km/h (2 Bft) O-SO 116 0 min 32 W/m 13,0 C 15,5 C 16,1 km/h (3 Bft)
19.07.2017 07:18 15,6 C 85 % 1015,1 hPa 0,0 l/m 6,3 km/h (2 Bft) O-NO 65 0 min 32 W/m 13,1 C 15,6 C 16,1 km/h (3 Bft)
19.07.2017 07:21 15,7 C 85 % 1015,1 hPa 0,0 l/m 6,8 km/h (2 Bft) O 86 0 min 32 W/m 13,2 C 15,5 C 17,7 km/h (3 Bft)
19.07.2017 07:24 15,7 C 85 % 1015,1 hPa 0,0 l/m 6,1 km/h (2 Bft) O-SO 112 0 min 32 W/m 13,2 C 15,7 C 14,5 km/h (3 Bft)
19.07.2017 07:27 15,8 C 84 % 1015,0 hPa 0,0 l/m 5,6 km/h (2 Bft) N-NO 29 0 min 32 W/m 13,1 C 15,8 C 14,5 km/h (3 Bft)
19.07.2017 07:30 15,8 C 84 % 1015,0 hPa 0,0 l/m 5,5 km/h (2 Bft) SO 126 0 min 32 W/m 13,1 C 15,8 C 12,9 km/h (3 Bft)
19.07.2017 07:33 15,8 C 84 % 1015,0 hPa 0,0 l/m 5,2 km/h (1 Bft) SO 128 0 min 33 W/m 13,1 C 15,8 C 12,9 km/h (3 Bft)
19.07.2017 07:36 15,9 C 84 % 1015,1 hPa 0,0 l/m 4,1 km/h (1 Bft) SW 215 0 min 33 W/m 13,2 C 15,9 C 11,3 km/h (2 Bft)
19.07.2017 07:39 15,9 C 84 % 1015,0 hPa 0,0 l/m 5,1 km/h (1 Bft) S 176 0 min 35 W/m 13,2 C 15,9 C 17,7 km/h (3 Bft)
19.07.2017 07:42 15,9 C 84 % 1015,1 hPa 0,0 l/m 4,8 km/h (1 Bft) O-SO 105 0 min 35 W/m 13,2 C 15,9 C 14,5 km/h (3 Bft)
19.07.2017 07:45 16,0 C 84 % 1015,0 hPa 0,0 l/m 5,0 km/h (1 Bft) O-SO 123 0 min 37 W/m 13,3 C 16,0 C 14,5 km/h (3 Bft)
19.07.2017 07:48 16,1 C 84 % 1015,0 hPa 0,0 l/m 5,3 km/h (1 Bft) SO 143 0 min 39 W/m 13,4 C 16,1 C 17,7 km/h (3 Bft)
19.07.2017 07:51 16,1 C 84 % 1015,1 hPa 0,0 l/m 5,8 km/h (2 Bft) O-SO 111 0 min 42 W/m 13,4 C 16,1 C 12,9 km/h (3 Bft)
19.07.2017 07:54 16,2 C 84 % 1015,0 hPa 0,0 l/m 7,2 km/h (2 Bft) O 84 0 min 44 W/m 13,5 C 15,8 C 19,3 km/h (3 Bft)
19.07.2017 07:57 16,3 C 85 % 1015,0 hPa 0,0 l/m 4,7 km/h (1 Bft) SO 146 0 min 49 W/m 13,8 C 16,3 C 12,9 km/h (3 Bft)
19.07.2017 08:00 16,3 C 85 % 1015,0 hPa 0,0 l/m 5,1 km/h (1 Bft) O 90 0 min 53 W/m 13,8 C 16,3 C 14,5 km/h (3 Bft)
19.07.2017 08:03 16,5 C 85 % 1015,0 hPa 0,0 l/m 5,5 km/h (2 Bft) SO 128 0 min 58 W/m 14,0 C 16,5 C 14,5 km/h (3 Bft)
19.07.2017 08:06 16,6 C 85 % 1014,9 hPa 0,0 l/m 7,7 km/h (2 Bft) S 188 0 min 60 W/m 14,1 C 15,9 C 22,5 km/h (4 Bft)
19.07.2017 08:09 16,7 C 84 % 1015,0 hPa 0,0 l/m 6,2 km/h (2 Bft) O 96 0 min 62 W/m 14,0 C 16,7 C 16,1 km/h (3 Bft)
19.07.2017 08:12 16,8 C 84 % 1015,1 hPa 0,0 l/m 8,1 km/h (2 Bft) S 190 0 min 63 W/m 14,1 C 15,9 C 22,5 km/h (4 Bft)
19.07.2017 08:15 16,9 C 83 % 1015,0 hPa 0,0 l/m 6,9 km/h (2 Bft) SO 134 0 min 62 W/m 14,0 C 16,7 C 16,1 km/h (3 Bft)
19.07.2017 08:18 16,9 C 83 % 1015,0 hPa 0,0 l/m 6,3 km/h (2 Bft) O-SO 104 0 min 65 W/m 14,0 C 16,9 C 16,1 km/h (3 Bft)
19.07.2017 08:21 17,0 C 83 % 1014,9 hPa 0,0 l/m 6,8 km/h (2 Bft) NO 35 0 min 65 W/m 14,1 C 16,8 C 12,9 km/h (3 Bft)
19.07.2017 08:24 17,1 C 83 % 1014,8 hPa 0,0 l/m 6,5 km/h (2 Bft) O-NO 78 0 min 72 W/m 14,2 C 17,1 C 16,1 km/h (3 Bft)
19.07.2017 08:27 17,1 C 83 % 1015,0 hPa 0,0 l/m 7,6 km/h (2 Bft) O-SO 103 0 min 132 W/m 14,2 C 16,5 C 19,3 km/h (3 Bft)
19.07.2017 08:30 17,2 C 83 % 1015,0 hPa 0,0 l/m 4,3 km/h (1 Bft) O 99 3 min 246 W/m 14,3 C 17,2 C 19,3 km/h (3 Bft)
19.07.2017 08:33 17,3 C 83 % 1014,9 hPa 0,0 l/m 5,1 km/h (1 Bft) O 95 3 min 265 W/m 14,4 C 17,3 C 16,1 km/h (3 Bft)
19.07.2017 08:36 17,3 C 83 % 1014,9 hPa 0,0 l/m 4,4 km/h (1 Bft) N-NO 17 3 min 309 W/m 14,4 C 17,3 C 12,9 km/h (3 Bft)
19.07.2017 08:39 17,5 C 82 % 1014,9 hPa 0,0 l/m 6,7 km/h (2 Bft) N-NO 24 3 min 355 W/m 14,4 C 17,4 C 16,1 km/h (3 Bft)
19.07.2017 08:42 17,7 C 82 % 1014,9 hPa 0,0 l/m 4,3 km/h (1 Bft) NO 53 3 min 357 W/m 14,6 C 17,7 C 8,0 km/h (2 Bft)
19.07.2017 08:45 17,9 C 82 % 1014,7 hPa 0,0 l/m 3,2 km/h (1 Bft) O-NO 68 3 min 392 W/m 14,8 C 17,9 C 11,3 km/h (2 Bft)
19.07.2017 08:48 18,1 C 81 % 1014,8 hPa 0,0 l/m 5,6 km/h (2 Bft) O 88 3 min 399 W/m 14,8 C 18,1 C 17,7 km/h (3 Bft)
19.07.2017 08:51 18,1 C 81 % 1014,7 hPa 0,0 l/m 5,8 km/h (2 Bft) O-SO 106 3 min 387 W/m 14,8 C 18,1 C 16,1 km/h (3 Bft)
19.07.2017 08:54 18,1 C 81 % 1014,7 hPa 0,0 l/m 4,8 km/h (1 Bft) O-SO 106 3 min 404 W/m 14,8 C 18,1 C 14,5 km/h (3 Bft)
19.07.2017 08:57 18,2 C 80 % 1014,7 hPa 0,0 l/m 5,5 km/h (2 Bft) S-SW 196 3 min 367 W/m 14,7 C 18,2 C 14,5 km/h (3 Bft)
19.07.2017 09:00 18,4 C 80 % 1014,7 hPa 0,0 l/m 4,0 km/h (1 Bft) SO 138 3 min 410 W/m 14,9 C 18,4 C 9,7 km/h (2 Bft)
19.07.2017 09:03 18,6 C 80 % 1014,6 hPa 0,0 l/m 3,5 km/h (1 Bft) O-NO 57 3 min 336 W/m 15,1 C 18,6 C 11,3 km/h (2 Bft)
19.07.2017 09:06 18,6 C 79 % 1014,6 hPa 0,0 l/m 5,6 km/h (2 Bft) NO 35 3 min 346 W/m 14,9 C 18,6 C 14,5 km/h (3 Bft)
19.07.2017 09:09 18,6 C 79 % 1014,6 hPa 0,0 l/m 4,3 km/h (1 Bft) O-NO 67 3 min 318 W/m 14,9 C 18,6 C 11,3 km/h (2 Bft)
19.07.2017 09:12 18,7 C 80 % 1014,6 hPa 0,0 l/m 3,2 km/h (1 Bft) O-SO 121 3 min 346 W/m 15,2 C 18,7 C 9,7 km/h (2 Bft)
19.07.2017 09:15 18,6 C 79 % 1014,6 hPa 0,0 l/m 5,1 km/h (1 Bft) S 188 3 min 369 W/m 14,9 C 18,6 C 11,3 km/h (2 Bft)
19.07.2017 09:18 18,7 C 80 % 1014,5 hPa 0,0 l/m 5,1 km/h (1 Bft) O-SO 107 3 min 362 W/m 15,2 C 18,7 C 16,1 km/h (3 Bft)
19.07.2017 09:21 18,7 C 79 % 1014,4 hPa 0,0 l/m 6,6 km/h (2 Bft) N-NO 19 3 min 343 W/m 15,0 C 18,6 C 16,1 km/h (3 Bft)
19.07.2017 09:24 18,8 C 80 % 1014,3 hPa 0,0 l/m 3,3 km/h (1 Bft) O-NO 63 3 min 369 W/m 15,3 C 18,8 C 11,3 km/h (2 Bft)
19.07.2017 09:27 18,8 C 80 % 1014,2 hPa 0,0 l/m 5,7 km/h (2 Bft) O-SO 116 3 min 366 W/m 15,3 C 18,8 C 14,5 km/h (3 Bft)
19.07.2017 09:30 18,8 C 79 % 1014,2 hPa 0,0 l/m 9,4 km/h (2 Bft) O-NO 65 3 min 387 W/m 15,1 C 17,5 C 19,3 km/h (3 Bft)
19.07.2017 09:33 18,8 C 79 % 1014,2 hPa 0,0 l/m 8,0 km/h (2 Bft) O-SO 103 3 min 373 W/m 15,1 C 18,1 C 17,7 km/h (3 Bft)
19.07.2017 09:36 18,9 C 79 % 1014,1 hPa 0,0 l/m 5,5 km/h (2 Bft) N-NO 30 3 min 403 W/m 15,2 C 18,9 C 19,3 km/h (3 Bft)
19.07.2017 09:39 19,1 C 79 % 1014,1 hPa 0,0 l/m 5,2 km/h (1 Bft) N 5 3 min 496 W/m 15,4 C 19,1 C 16,1 km/h (3 Bft)
19.07.2017 09:42 19,3 C 78 % 1014,0 hPa 0,0 l/m 7,3 km/h (2 Bft) O-SO 109 3 min 434 W/m 15,4 C 18,9 C 14,5 km/h (3 Bft)
19.07.2017 09:45 19,4 C 78 % 1014,0 hPa 0,0 l/m 4,6 km/h (1 Bft) N 355 3 min 418 W/m 15,5 C 19,4 C 12,9 km/h (3 Bft)
19.07.2017 09:48 19,6 C 79 % 1014,1 hPa 0,0 l/m 3,7 km/h (1 Bft) NO 55 3 min 406 W/m 15,9 C 19,6 C 9,7 km/h (2 Bft)
19.07.2017 09:51 19,7 C 79 % 1014,0 hPa 0,0 l/m 5,2 km/h (1 Bft) O-NO 76 3 min 531 W/m 16,0 C 19,7 C 14,5 km/h (3 Bft)
19.07.2017 09:54 19,7 C 78 % 1014,0 hPa 0,0 l/m 5,5 km/h (2 Bft) O 82 3 min 508 W/m 15,8 C 19,7 C 14,5 km/h (3 Bft)
19.07.2017 09:57 19,8 C 79 % 1013,9 hPa 0,0 l/m 3,8 km/h (1 Bft) SO 144 3 min 478 W/m 16,0 C 19,8 C 9,7 km/h (2 Bft)
19.07.2017 10:00 19,9 C 79 % 1013,9 hPa 0,0 l/m 3,3 km/h (1 Bft) O 84 3 min 499 W/m 16,1 C 19,9 C 8,0 km/h (2 Bft)
19.07.2017 10:03 20,1 C 78 % 1013,9 hPa 0,0 l/m 4,6 km/h (1 Bft) S-SO 166 3 min 540 W/m 16,1 C 20,1 C 11,3 km/h (2 Bft)
19.07.2017 10:06 20,2 C 77 % 1013,9 hPa 0,0 l/m 7,1 km/h (2 Bft) O-NO 66 3 min 522 W/m 16,0 C 19,9 C 16,1 km/h (3 Bft)
19.07.2017 10:09 20,3 C 77 % 1013,8 hPa 0,0 l/m 5,4 km/h (2 Bft) N-NO 27 3 min 415 W/m 16,1 C 20,3 C 16,1 km/h (3 Bft)
19.07.2017 10:12 20,3 C 77 % 1013,9 hPa 0,0 l/m 7,7 km/h (2 Bft) O-NO 71 3 min 366 W/m 16,1 C 19,8 C 19,3 km/h (3 Bft)
19.07.2017 10:15 20,3 C 76 % 1013,9 hPa 0,0 l/m 6,1 km/h (2 Bft) O 86 3 min 443 W/m 15,9 C 20,3 C 14,5 km/h (3 Bft)
19.07.2017 10:18 20,4 C 76 % 1013,9 hPa 0,0 l/m 4,3 km/h (1 Bft) O-NO 63 3 min 401 W/m 16,0 C 20,4 C 11,3 km/h (2 Bft)
19.07.2017 10:21 20,4 C 75 % 1013,8 hPa 0,0 l/m 6,6 km/h (2 Bft) O 96 0 min 327 W/m 15,8 C 20,3 C 16,1 km/h (3 Bft)
19.07.2017 10:24 20,3 C 76 % 1013,8 hPa 0,0 l/m 6,2 km/h (2 Bft) NW 316 0 min 357 W/m 15,9 C 20,3 C 14,5 km/h (3 Bft)
19.07.2017 10:27 20,2 C 77 % 1013,7 hPa 0,0 l/m 6,0 km/h (2 Bft) O 83 3 min 473 W/m 16,0 C 20,2 C 19,3 km/h (3 Bft)
19.07.2017 10:30 20,2 C 77 % 1013,6 hPa 0,0 l/m 5,8 km/h (2 Bft) NO 42 0 min 313 W/m 16,0 C 20,2 C 14,5 km/h (3 Bft)
19.07.2017 10:33 20,2 C 78 % 1013,6 hPa 0,0 l/m 4,9 km/h (1 Bft) O-SO 122 0 min 276 W/m 16,2 C 20,2 C 11,3 km/h (2 Bft)
19.07.2017 10:36 20,2 C 77 % 1013,6 hPa 0,0 l/m 4,1 km/h (1 Bft) O-NO 63 0 min 341 W/m 16,0 C 20,2 C 9,7 km/h (2 Bft)
19.07.2017 10:39 20,2 C 79 % 1013,6 hPa 0,0 l/m 4,5 km/h (1 Bft) SW 217 3 min 441 W/m 16,4 C 20,2 C 11,3 km/h (2 Bft)
19.07.2017 10:42 20,2 C 78 % 1013,5 hPa 0,0 l/m 5,6 km/h (2 Bft) N-NW 341 0 min 292 W/m 16,2 C 20,2 C 12,9 km/h (3 Bft)
19.07.2017 10:45 20,2 C 78 % 1013,5 hPa 0,0 l/m 6,3 km/h (2 Bft) N-NO 32 0 min 311 W/m 16,2 C 20,2 C 14,5 km/h (3 Bft)
19.07.2017 10:48 20,2 C 78 % 1013,5 hPa 0,0 l/m 6,3 km/h (2 Bft) NW 321 0 min 311 W/m 16,2 C 20,2 C 14,5 km/h (3 Bft)
19.07.2017 10:51 20,2 C 79 % 1013,5 hPa 0,0 l/m 5,7 km/h (2 Bft) N-NO 27 3 min 420 W/m 16,4 C 20,2 C 19,3 km/h (3 Bft)
19.07.2017 10:54 20,3 C 79 % 1013,5 hPa 0,0 l/m 4,6 km/h (1 Bft) O-SO 111 3 min 534 W/m 16,5 C 20,3 C 11,3 km/h (2 Bft)
19.07.2017 10:57 20,5 C 79 % 1013,5 hPa 0,0 l/m 5,9 km/h (2 Bft) O 101 3 min 515 W/m 16,7 C 20,5 C 16,1 km/h (3 Bft)
19.07.2017 11:00 20,7 C 78 % 1013,5 hPa 0,0 l/m 6,4 km/h (2 Bft) N 355 3 min 483 W/m 16,7 C 20,7 C 16,1 km/h (3 Bft)
19.07.2017 11:03 20,9 C 79 % 1013,4 hPa 0,0 l/m 4,6 km/h (1 Bft) SW 219 3 min 526 W/m 17,1 C 20,9 C 12,9 km/h (3 Bft)
19.07.2017 11:06 21,1 C 77 % 1013,4 hPa 0,0 l/m 6,2 km/h (2 Bft) S-SO 161 3 min 482 W/m 16,9 C 21,1 C 14,5 km/h (3 Bft)
19.07.2017 11:09 21,2 C 78 % 1013,3 hPa 0,0 l/m 4,9 km/h (1 Bft) S-SO 151 3 min 461 W/m 17,2 C 21,2 C 11,3 km/h (2 Bft)
19.07.2017 11:12 21,3 C 77 % 1013,3 hPa 0,0 l/m 4,4 km/h (1 Bft) SO 132 3 min 457 W/m 17,1 C 21,3 C 16,1 km/h (3 Bft)
19.07.2017 11:15 21,2 C 78 % 1013,3 hPa 0,0 l/m 6,0 km/h (2 Bft) O-NO 69 3 min 496 W/m 17,2 C 21,2 C 14,5 km/h (3 Bft)
19.07.2017 11:18 21,3 C 78 % 1013,3 hPa 0,0 l/m 5,4 km/h (2 Bft) O-NO 76 3 min 533 W/m 17,3 C 21,3 C 9,7 km/h (2 Bft)
19.07.2017 11:21 21,4 C 77 % 1013,1 hPa 0,0 l/m 7,2 km/h (2 Bft) S 169 3 min 473 W/m 17,2 C 21,1 C 16,1 km/h (3 Bft)
19.07.2017 11:24 21,5 C 78 % 1013,1 hPa 0,0 l/m 4,6 km/h (1 Bft) O-NO 76 3 min 464 W/m 17,5 C 21,5 C 14,5 km/h (3 Bft)
19.07.2017 11:27 21,6 C 76 % 1013,0 hPa 0,0 l/m 4,1 km/h (1 Bft) O 97 3 min 494 W/m 17,2 C 21,6 C 11,3 km/h (2 Bft)
19.07.2017 11:30 21,6 C 77 % 1013,0 hPa 0,0 l/m 4,0 km/h (1 Bft) O-NO 62 3 min 424 W/m 17,4 C 21,6 C 9,7 km/h (2 Bft)
19.07.2017 11:33 21,7 C 77 % 1013,0 hPa 0,0 l/m 4,5 km/h (1 Bft) O-NO 63 3 min 501 W/m 17,5 C 21,7 C 12,9 km/h (3 Bft)
19.07.2017 11:36 21,8 C 76 % 1012,9 hPa 0,0 l/m 7,3 km/h (2 Bft) SW 215 3 min 603 W/m 17,4 C 21,5 C 14,5 km/h (3 Bft)
19.07.2017 11:39 22,0 C 77 % 1012,9 hPa 0,0 l/m 4,7 km/h (1 Bft) O 90 3 min 538 W/m 17,8 C 22,0 C 12,9 km/h (3 Bft)
19.07.2017 11:42 22,1 C 77 % 1012,8 hPa 0,0 l/m 4,7 km/h (1 Bft) O 80 3 min 464 W/m 17,9 C 22,1 C 14,5 km/h (3 Bft)
19.07.2017 11:45 22,1 C 76 % 1012,7 hPa 0,0 l/m 4,6 km/h (1 Bft) O 86 3 min 497 W/m 17,7 C 22,1 C 14,5 km/h (3 Bft)
19.07.2017 11:48 22,1 C 76 % 1012,8 hPa 0,0 l/m 5,5 km/h (2 Bft) O-NO 69 3 min 459 W/m 17,7 C 22,1 C 12,9 km/h (3 Bft)
19.07.2017 11:51 22,2 C 76 % 1012,7 hPa 0,0 l/m 5,2 km/h (1 Bft) N 5 3 min 552 W/m 17,8 C 22,2 C 14,5 km/h (3 Bft)
19.07.2017 11:54 22,2 C 76 % 1012,7 hPa 0,0 l/m 6,0 km/h (2 Bft) NW 314 3 min 617 W/m 17,8 C 22,2 C 16,1 km/h (3 Bft)
19.07.2017 11:57 22,3 C 76 % 1012,6 hPa 0,0 l/m 5,8 km/h (2 Bft) NO 51 3 min 640 W/m 17,9 C 22,3 C 19,3 km/h (3 Bft)
19.07.2017 12:00 22,6 C 76 % 1012,6 hPa 0,0 l/m 5,4 km/h (2 Bft) NW 304 3 min 615 W/m 18,1 C 22,6 C 12,9 km/h (3 Bft)
19.07.2017 12:03 22,7 C 76 % 1012,5 hPa 0,0 l/m 5,1 km/h (1 Bft) O-SO 119 3 min 682 W/m 18,2 C 22,7 C 12,9 km/h (3 Bft)
19.07.2017 12:06 22,9 C 74 % 1012,4 hPa 0,0 l/m 5,4 km/h (2 Bft) S 181 3 min 728 W/m 18,0 C 22,9 C 16,1 km/h (3 Bft)
19.07.2017 12:09 23,1 C 74 % 1012,4 hPa 0,0 l/m 4,4 km/h (1 Bft) NO 53 3 min 779 W/m 18,2 C 23,1 C 14,5 km/h (3 Bft)
19.07.2017 12:12 23,3 C 73 % 1012,4 hPa 0,0 l/m 7,1 km/h (2 Bft) NO 38 3 min 686 W/m 18,2 C 23,1 C 17,7 km/h (3 Bft)
19.07.2017 12:15 23,6 C 73 % 1012,2 hPa 0,0 l/m 3,1 km/h (1 Bft) O 99 3 min 649 W/m 18,5 C 23,6 C 8,0 km/h (2 Bft)
19.07.2017 12:18 23,6 C 71 % 1012,1 hPa 0,0 l/m 7,1 km/h (2 Bft) O 90 3 min 575 W/m 18,0 C 23,4 C 17,7 km/h (3 Bft)
19.07.2017 12:21 23,6 C 71 % 1012,2 hPa 0,0 l/m 6,7 km/h (2 Bft) O-NO 62 3 min 624 W/m 18,0 C 23,5 C 17,7 km/h (3 Bft)
19.07.2017 12:24 23,6 C 72 % 1012,2 hPa 0,0 l/m 4,5 km/h (1 Bft) O 98 3 min 585 W/m 18,2 C 23,6 C 11,3 km/h (2 Bft)
19.07.2017 12:27 23,7 C 72 % 1012,2 hPa 0,0 l/m 7,0 km/h (2 Bft) N 9 3 min 624 W/m 18,3 C 23,5 C 19,3 km/h (3 Bft)
19.07.2017 12:30 23,8 C 71 % 1012,2 hPa 0,0 l/m 5,7 km/h (2 Bft) NO 45 3 min 628 W/m 18,2 C 23,8 C 16,1 km/h (3 Bft)
19.07.2017 12:33 23,9 C 72 % 1012,2 hPa 0,0 l/m 5,7 km/h (2 Bft) NO 48 3 min 605 W/m 18,5 C 23,9 C 16,1 km/h (3 Bft)
19.07.2017 12:36 23,9 C 71 % 1012,1 hPa 0,0 l/m 6,6 km/h (2 Bft) NO 51 3 min 615 W/m 18,3 C 23,9 C 16,1 km/h (3 Bft)
19.07.2017 12:39 23,9 C 71 % 1012,1 hPa 0,0 l/m 3,6 km/h (1 Bft) O-NO 63 3 min 612 W/m 18,3 C 23,9 C 9,7 km/h (2 Bft)
19.07.2017 12:42 24,0 C 72 % 1012,1 hPa 0,0 l/m 4,4 km/h (1 Bft) O 101 3 min 622 W/m 18,6 C 24,0 C 12,9 km/h (3 Bft)
19.07.2017 12:45 24,1 C 72 % 1012,1 hPa 0,0 l/m 5,4 km/h (2 Bft) O 87 3 min 522 W/m 18,7 C 24,1 C 16,1 km/h (3 Bft)
19.07.2017 12:48 23,9 C 70 % 1012,0 hPa 0,0 l/m 8,0 km/h (2 Bft) SO 128 3 min 591 W/m 18,1 C 23,4 C 19,3 km/h (3 Bft)
19.07.2017 12:51 23,8 C 71 % 1012,0 hPa 0,0 l/m 4,7 km/h (1 Bft) N-NO 12 3 min 591 W/m 18,2 C 23,8 C 17,7 km/h (3 Bft)
19.07.2017 12:54 23,8 C 73 % 1011,9 hPa 0,0 l/m 4,2 km/h (1 Bft) O 80 3 min 659 W/m 18,7 C 23,8 C 11,3 km/h (2 Bft)
19.07.2017 12:57 23,8 C 71 % 1011,9 hPa 0,0 l/m 6,3 km/h (2 Bft) O 99 3 min 557 W/m 18,2 C 23,8 C 14,5 km/h (3 Bft)
19.07.2017 13:00 23,8 C 73 % 1011,9 hPa 0,0 l/m 6,1 km/h (2 Bft) NO 40 3 min 691 W/m 18,7 C 23,8 C 12,9 km/h (3 Bft)
19.07.2017 13:03 24,1 C 72 % 1011,9 hPa 0,0 l/m 4,3 km/h (1 Bft) SW 219 3 min 708 W/m 18,7 C 24,1 C 11,3 km/h (2 Bft)
19.07.2017 13:06 24,4 C 69 % 1012,0 hPa 0,0 l/m 7,0 km/h (2 Bft) O 98 3 min 807 W/m 18,3 C 24,2 C 17,7 km/h (3 Bft)
19.07.2017 13:09 24,7 C 67 % 1012,0 hPa 0,0 l/m 6,9 km/h (2 Bft) N 9 3 min 846 W/m 18,1 C 24,6 C 17,7 km/h (3 Bft)
19.07.2017 13:12 24,6 C 65 % 1011,9 hPa 0,0 l/m 6,5 km/h (2 Bft) N 355 3 min 475 W/m 17,6 C 24,6 C 17,7 km/h (3 Bft)
19.07.2017 13:15 24,6 C 68 % 1011,9 hPa 0,0 l/m 6,1 km/h (2 Bft) NO 48 0 min 320 W/m 18,3 C 24,6 C 14,5 km/h (3 Bft)
19.07.2017 13:18 24,3 C 65 % 1011,9 hPa 0,0 l/m 7,3 km/h (2 Bft) SO 139 0 min 329 W/m 17,3 C 24,1 C 20,9 km/h (4 Bft)
19.07.2017 13:21 24,3 C 67 % 1011,7 hPa 0,0 l/m 8,5 km/h (2 Bft) O 101 3 min 872 W/m 17,8 C 23,7 C 19,3 km/h (3 Bft)
19.07.2017 13:24 24,6 C 64 % 1011,8 hPa 0,0 l/m 7,0 km/h (2 Bft) O-NO 60 3 min 784 W/m 17,3 C 24,4 C 14,5 km/h (3 Bft)
19.07.2017 13:27 24,9 C 66 % 1011,8 hPa 0,0 l/m 8,1 km/h (2 Bft) O-SO 118 0 min 410 W/m 18,1 C 24,5 C 20,9 km/h (4 Bft)
19.07.2017 13:30 24,9 C 64 % 1011,9 hPa 0,0 l/m 8,1 km/h (2 Bft) SO 130 3 min 719 W/m 17,6 C 24,5 C 20,9 km/h (4 Bft)
19.07.2017 13:33 25,0 C 64 % 1011,8 hPa 0,0 l/m 5,6 km/h (2 Bft) S-SO 165 3 min 780 W/m 17,7 C 25,0 C 16,1 km/h (3 Bft)
19.07.2017 13:36 25,3 C 67 % 1011,8 hPa 0,0 l/m 5,3 km/h (1 Bft) O-SO 117 3 min 763 W/m 18,7 C 25,3 C 17,7 km/h (3 Bft)
19.07.2017 13:39 25,4 C 64 % 1011,7 hPa 0,0 l/m 4,9 km/h (1 Bft) O-SO 106 3 min 789 W/m 18,1 C 25,4 C 16,1 km/h (3 Bft)
19.07.2017 13:42 25,6 C 66 % 1011,6 hPa 0,0 l/m 5,1 km/h (1 Bft) W-NW 300 3 min 849 W/m 18,8 C 25,6 C 17,7 km/h (3 Bft)
19.07.2017 13:45 25,7 C 64 % 1011,7 hPa 0,0 l/m 6,6 km/h (2 Bft) O-NO 72 3 min 840 W/m 18,4 C 25,7 C 14,5 km/h (3 Bft)
19.07.2017 13:48 25,7 C 64 % 1011,5 hPa 0,0 l/m 7,1 km/h (2 Bft) O 83 3 min 837 W/m 18,4 C 25,5 C 16,1 km/h (3 Bft)
19.07.2017 13:51 25,7 C 64 % 1011,6 hPa 0,0 l/m 7,8 km/h (2 Bft) O 80 3 min 835 W/m 18,4 C 25,4 C 22,5 km/h (4 Bft)
19.07.2017 13:54 25,7 C 61 % 1011,5 hPa 0,0 l/m 7,1 km/h (2 Bft) N 360 3 min 821 W/m 17,6 C 25,5 C 14,5 km/h (3 Bft)
19.07.2017 13:57 25,8 C 61 % 1011,4 hPa 0,0 l/m 6,7 km/h (2 Bft) O 80 3 min 772 W/m 17,7 C 25,7 C 16,1 km/h (3 Bft)
19.07.2017 14:00 25,8 C 62 % 1011,5 hPa 0,0 l/m 6,8 km/h (2 Bft) O-SO 117 3 min 780 W/m 18,0 C 25,7 C 16,1 km/h (3 Bft)
19.07.2017 14:03 25,9 C 63 % 1011,4 hPa 0,0 l/m 7,3 km/h (2 Bft) NO 43 3 min 824 W/m 18,3 C 25,7 C 17,7 km/h (3 Bft)
19.07.2017 14:06 26,2 C 63 % 1011,4 hPa 0,0 l/m 5,7 km/h (2 Bft) O-NO 77 3 min 803 W/m 18,6 C 26,2 C 17,7 km/h (3 Bft)
19.07.2017 14:09 26,1 C 61 % 1011,3 hPa 0,0 l/m 8,0 km/h (2 Bft) S-SO 168 3 min 819 W/m 18,0 C 25,8 C 20,9 km/h (4 Bft)
19.07.2017 14:12 26,2 C 60 % 1011,2 hPa 0,0 l/m 7,6 km/h (2 Bft) N-NW 346 3 min 819 W/m 17,8 C 25,9 C 17,7 km/h (3 Bft)
19.07.2017 14:15 26,3 C 63 % 1011,2 hPa 0,0 l/m 3,9 km/h (1 Bft) N 9 3 min 795 W/m 18,7 C 26,3 C 11,3 km/h (2 Bft)
19.07.2017 14:18 26,3 C 60 % 1011,1 hPa 0,0 l/m 8,3 km/h (2 Bft) N-NW 346 3 min 779 W/m 17,9 C 25,9 C 24,1 km/h (4 Bft)
19.07.2017 14:21 26,6 C 61 % 1011,0 hPa 0,0 l/m 4,3 km/h (1 Bft) NO 37 3 min 791 W/m 18,4 C 26,6 C 14,5 km/h (3 Bft)
19.07.2017 14:24 26,6 C 58 % 1011,0 hPa 0,0 l/m 7,8 km/h (2 Bft) O 96 3 min 761 W/m 17,6 C 26,3 C 17,7 km/h (3 Bft)
19.07.2017 14:27 26,4 C 58 % 1010,9 hPa 0,0 l/m 7,3 km/h (2 Bft) O 90 3 min 722 W/m 17,5 C 26,2 C 17,7 km/h (3 Bft)
19.07.2017 14:30 26,4 C 58 % 1011,0 hPa 0,0 l/m 9,5 km/h (2 Bft) N 351 3 min 749 W/m 17,5 C 25,8 C 17,7 km/h (3 Bft)
19.07.2017 14:33 26,4 C 56 % 1011,0 hPa 0,0 l/m 6,5 km/h (2 Bft) NO 34 3 min 664 W/m 16,9 C 26,4 C 17,7 km/h (3 Bft)
19.07.2017 14:36 26,4 C 58 % 1011,0 hPa 0,0 l/m 7,0 km/h (2 Bft) N-NW 333 3 min 675 W/m 17,5 C 26,3 C 16,1 km/h (3 Bft)
19.07.2017 14:39 26,3 C 57 % 1011,0 hPa 0,0 l/m 10,4 km/h (2 Bft) O-SO 106 3 min 584 W/m 17,1 C 25,5 C 19,3 km/h (3 Bft)
19.07.2017 14:42 26,3 C 58 % 1011,0 hPa 0,0 l/m 6,2 km/h (2 Bft) S-SW 211 3 min 714 W/m 17,4 C 26,3 C 16,1 km/h (3 Bft)
19.07.2017 14:45 26,3 C 57 % 1011,0 hPa 0,0 l/m 5,5 km/h (2 Bft) O-SO 113 3 min 654 W/m 17,1 C 26,3 C 12,9 km/h (3 Bft)
19.07.2017 14:48 26,4 C 59 % 1010,9 hPa 0,0 l/m 5,8 km/h (2 Bft) W-NW 295 3 min 613 W/m 17,7 C 26,4 C 20,9 km/h (4 Bft)
19.07.2017 14:51 26,4 C 56 % 1010,8 hPa 0,0 l/m 6,3 km/h (2 Bft) O-SO 111 3 min 612 W/m 16,9 C 26,4 C 17,7 km/h (3 Bft)
19.07.2017 14:54 26,4 C 57 % 1010,9 hPa 0,0 l/m 7,4 km/h (2 Bft) O-SO 122 3 min 568 W/m 17,2 C 26,2 C 17,7 km/h (3 Bft)
19.07.2017 14:57 26,2 C 56 % 1010,9 hPa 0,0 l/m 9,3 km/h (2 Bft) O-NO 57 3 min 541 W/m 16,7 C 25,6 C 19,3 km/h (3 Bft)
19.07.2017 15:00 26,1 C 58 % 1010,7 hPa 0,0 l/m 7,9 km/h (2 Bft) O 92 3 min 536 W/m 17,2 C 25,8 C 19,3 km/h (3 Bft)
19.07.2017 15:03 25,9 C 58 % 1010,6 hPa 0,0 l/m 7,5 km/h (2 Bft) O 83 3 min 548 W/m 17,0 C 25,7 C 19,3 km/h (3 Bft)
19.07.2017 15:06 25,9 C 60 % 1010,7 hPa 0,0 l/m 6,7 km/h (2 Bft) O-NO 57 3 min 550 W/m 17,5 C 25,8 C 17,7 km/h (3 Bft)
19.07.2017 15:09 25,9 C 59 % 1010,8 hPa 0,0 l/m 5,6 km/h (2 Bft) NO 39 3 min 543 W/m 17,3 C 25,9 C 19,3 km/h (3 Bft)
19.07.2017 15:12 26,0 C 59 % 1010,8 hPa 0,0 l/m 9,5 km/h (2 Bft) N-NO 22 3 min 561 W/m 17,4 C 25,4 C 19,3 km/h (3 Bft)
19.07.2017 15:15 26,0 C 59 % 1010,7 hPa 0,0 l/m 8,2 km/h (2 Bft) O-SO 115 3 min 504 W/m 17,4 C 25,6 C 17,7 km/h (3 Bft)
19.07.2017 15:18 26,0 C 60 % 1010,7 hPa 0,0 l/m 5,7 km/h (2 Bft) N-NO 22 3 min 429 W/m 17,6 C 26,0 C 14,5 km/h (3 Bft)
19.07.2017 15:21 26,0 C 58 % 1010,6 hPa 0,0 l/m 7,9 km/h (2 Bft) N 360 0 min 418 W/m 17,1 C 25,7 C 17,7 km/h (3 Bft)
19.07.2017 15:24 25,9 C 59 % 1010,6 hPa 0,0 l/m 6,9 km/h (2 Bft) SO 125 3 min 443 W/m 17,3 C 25,8 C 25,7 km/h (4 Bft)
19.07.2017 15:27 25,8 C 62 % 1010,5 hPa 0,0 l/m 6,1 km/h (2 Bft) NO 46 3 min 439 W/m 18,0 C 25,8 C 17,7 km/h (3 Bft)
19.07.2017 15:30 25,8 C 60 % 1010,5 hPa 0,0 l/m 7,5 km/h (2 Bft) NO 50 3 min 466 W/m 17,4 C 25,6 C 16,1 km/h (3 Bft)
19.07.2017 15:33 25,7 C 61 % 1010,4 hPa 0,0 l/m 6,0 km/h (2 Bft) O 83 3 min 461 W/m 17,6 C 25,7 C 16,1 km/h (3 Bft)
19.07.2017 15:36 25,8 C 60 % 1010,4 hPa 0,0 l/m 6,4 km/h (2 Bft) O 95 0 min 388 W/m 17,4 C 25,8 C 14,5 km/h (3 Bft)
19.07.2017 15:39 25,8 C 60 % 1010,4 hPa 0,0 l/m 6,5 km/h (2 Bft) O-SO 123 3 min 527 W/m 17,4 C 25,8 C 17,7 km/h (3 Bft)
19.07.2017 15:42 25,9 C 59 % 1010,5 hPa 0,0 l/m 6,5 km/h (2 Bft) O 94 3 min 566 W/m 17,3 C 25,9 C 16,1 km/h (3 Bft)
19.07.2017 15:45 26,0 C 59 % 1010,4 hPa 0,0 l/m 7,6 km/h (2 Bft) W 264 3 min 533 W/m 17,4 C 25,7 C 20,9 km/h (4 Bft)
19.07.2017 15:48 26,1 C 60 % 1010,5 hPa 0,0 l/m 4,9 km/h (1 Bft) O-NO 74 3 min 436 W/m 17,7 C 26,1 C 14,5 km/h (3 Bft)
19.07.2017 15:51 26,0 C 61 % 1010,4 hPa 0,0 l/m 8,2 km/h (2 Bft) SO 128 3 min 552 W/m 17,9 C 25,6 C 20,9 km/h (4 Bft)
19.07.2017 15:54 25,9 C 61 % 1010,3 hPa 0,0 l/m 5,6 km/h (2 Bft) S-SO 148 3 min 577 W/m 17,8 C 25,9 C 17,7 km/h (3 Bft)
19.07.2017 15:57 26,1 C 59 % 1010,2 hPa 0,0 l/m 7,0 km/h (2 Bft) SO 138 3 min 519 W/m 17,4 C 26,0 C 16,1 km/h (3 Bft)
19.07.2017 16:00 26,1 C 60 % 1010,1 hPa 0,0 l/m 5,2 km/h (1 Bft) N-NO 33 3 min 469 W/m 17,7 C 26,1 C 20,9 km/h (4 Bft)
19.07.2017 16:03 26,1 C 62 % 1010,0 hPa 0,0 l/m 5,9 km/h (2 Bft) S-SO 149 3 min 418 W/m 18,2 C 26,1 C 16,1 km/h (3 Bft)
19.07.2017 16:06 26,1 C 61 % 1010,0 hPa 0,0 l/m 7,4 km/h (2 Bft) O-NO 67 3 min 434 W/m 18,0 C 25,9 C 19,3 km/h (3 Bft)
19.07.2017 16:09 25,9 C 61 % 1009,9 hPa 0,0 l/m 6,6 km/h (2 Bft) O-NO 61 3 min 415 W/m 17,8 C 25,9 C 16,1 km/h (3 Bft)
19.07.2017 16:12 25,9 C 60 % 1009,8 hPa 0,0 l/m 8,2 km/h (2 Bft) O 83 3 min 459 W/m 17,5 C 25,5 C 17,7 km/h (3 Bft)
19.07.2017 16:15 25,9 C 62 % 1009,7 hPa 0,0 l/m 7,2 km/h (2 Bft) O-NO 76 3 min 496 W/m 18,0 C 25,7 C 22,5 km/h (4 Bft)
19.07.2017 16:18 25,9 C 60 % 1009,6 hPa 0,0 l/m 7,5 km/h (2 Bft) O 88 3 min 446 W/m 17,5 C 25,7 C 19,3 km/h (3 Bft)
19.07.2017 16:21 25,8 C 61 % 1009,6 hPa 0,0 l/m 6,7 km/h (2 Bft) SO 143 3 min 376 W/m 17,7 C 25,7 C 14,5 km/h (3 Bft)
19.07.2017 16:24 25,8 C 62 % 1009,5 hPa 0,0 l/m 7,2 km/h (2 Bft) O 86 0 min 369 W/m 18,0 C 25,6 C 19,3 km/h (3 Bft)
19.07.2017 16:27 25,8 C 62 % 1009,5 hPa 0,0 l/m 7,1 km/h (2 Bft) O 84 0 min 308 W/m 18,0 C 25,6 C 16,1 km/h (3 Bft)
19.07.2017 16:30 25,8 C 60 % 1009,4 hPa 0,0 l/m 6,4 km/h (2 Bft) O-SO 114 3 min 367 W/m 17,4 C 25,8 C 17,7 km/h (3 Bft)
19.07.2017 16:33 25,8 C 60 % 1009,3 hPa 0,0 l/m 8,2 km/h (2 Bft) O-SO 111 0 min 359 W/m 17,4 C 25,4 C 16,1 km/h (3 Bft)
19.07.2017 16:36 25,8 C 61 % 1009,2 hPa 0,0 l/m 6,7 km/h (2 Bft) SO 146 0 min 343 W/m 17,7 C 25,7 C 19,3 km/h (3 Bft)
19.07.2017 16:39 25,8 C 63 % 1009,2 hPa 0,0 l/m 5,8 km/h (2 Bft) NO 51 3 min 380 W/m 18,2 C 25,8 C 14,5 km/h (3 Bft)
19.07.2017 16:42 25,9 C 63 % 1009,2 hPa 0,0 l/m 7,6 km/h (2 Bft) S-SO 152 3 min 429 W/m 18,3 C 25,6 C 19,3 km/h (3 Bft)
19.07.2017 16:45 26,0 C 61 % 1009,2 hPa 0,0 l/m 6,4 km/h (2 Bft) NW 306 3 min 577 W/m 17,9 C 26,0 C 16,1 km/h (3 Bft)
19.07.2017 16:48 26,2 C 63 % 1009,2 hPa 0,0 l/m 4,3 km/h (1 Bft) N-NO 17 3 min 473 W/m 18,6 C 26,2 C 12,9 km/h (3 Bft)
19.07.2017 16:51 26,3 C 60 % 1009,3 hPa 0,0 l/m 7,8 km/h (2 Bft) SO 136 3 min 603 W/m 17,9 C 26,0 C 20,9 km/h (4 Bft)
19.07.2017 16:54 26,7 C 60 % 1009,2 hPa 0,0 l/m 8,1 km/h (2 Bft) O-NO 59 3 min 582 W/m 18,3 C 26,4 C 20,9 km/h (4 Bft)
19.07.2017 16:57 26,7 C 58 % 1009,3 hPa 0,0 l/m 7,5 km/h (2 Bft) SO 129 3 min 506 W/m 17,7 C 26,5 C 17,7 km/h (3 Bft)
19.07.2017 17:00 26,7 C 60 % 1009,3 hPa 0,0 l/m 7,2 km/h (2 Bft) O-SO 113 3 min 454 W/m 18,3 C 26,5 C 16,1 km/h (3 Bft)
19.07.2017 17:03 26,7 C 59 % 1009,3 hPa 0,0 l/m 7,0 km/h (2 Bft) O-SO 105 3 min 399 W/m 18,0 C 26,6 C 17,7 km/h (3 Bft)
19.07.2017 17:06 26,6 C 58 % 1009,4 hPa 0,0 l/m 7,7 km/h (2 Bft) W 267 3 min 547 W/m 17,6 C 26,3 C 17,7 km/h (3 Bft)
19.07.2017 17:09 26,5 C 56 % 1009,4 hPa 0,0 l/m 6,7 km/h (2 Bft) NO 47 3 min 388 W/m 17,0 C 26,4 C 20,9 km/h (4 Bft)
19.07.2017 17:12 26,5 C 59 % 1009,3 hPa 0,0 l/m 6,9 km/h (2 Bft) O-NO 57 3 min 473 W/m 17,8 C 26,4 C 17,7 km/h (3 Bft)
19.07.2017 17:15 26,4 C 57 % 1009,3 hPa 0,0 l/m 8,6 km/h (2 Bft) SO 138 3 min 336 W/m 17,2 C 26,0 C 16,1 km/h (3 Bft)
19.07.2017 17:18 26,3 C 59 % 1009,2 hPa 0,0 l/m 8,3 km/h (2 Bft) N 11 3 min 360 W/m 17,6 C 25,9 C 16,1 km/h (3 Bft)
19.07.2017 17:21 26,2 C 58 % 1009,2 hPa 0,0 l/m 7,5 km/h (2 Bft) S-SO 154 3 min 438 W/m 17,3 C 26,0 C 20,9 km/h (4 Bft)
19.07.2017 17:24 26,2 C 58 % 1009,1 hPa 0,0 l/m 6,6 km/h (2 Bft) O-SO 107 3 min 348 W/m 17,3 C 26,2 C 19,3 km/h (3 Bft)
19.07.2017 17:27 26,2 C 59 % 1009,2 hPa 0,0 l/m 7,7 km/h (2 Bft) O 87 3 min 357 W/m 17,5 C 25,9 C 17,7 km/h (3 Bft)
19.07.2017 17:30 26,1 C 59 % 1009,0 hPa 0,0 l/m 5,7 km/h (2 Bft) O-SO 103 3 min 352 W/m 17,4 C 26,1 C 14,5 km/h (3 Bft)
19.07.2017 17:33 26,2 C 59 % 1009,1 hPa 0,0 l/m 4,5 km/h (1 Bft) NO 41 0 min 301 W/m 17,5 C 26,2 C 14,5 km/h (3 Bft)
19.07.2017 17:36 26,1 C 57 % 1009,0 hPa 0,0 l/m 7,2 km/h (2 Bft) SO 134 0 min 255 W/m 16,9 C 25,9 C 24,1 km/h (4 Bft)
19.07.2017 17:39 25,9 C 59 % 1008,9 hPa 0,0 l/m 5,6 km/h (2 Bft) O 94 0 min 279 W/m 17,3 C 25,9 C 16,1 km/h (3 Bft)
19.07.2017 17:42 25,8 C 60 % 1008,8 hPa 0,0 l/m 6,2 km/h (2 Bft) O 86 0 min 234 W/m 17,4 C 25,8 C 16,1 km/h (3 Bft)
19.07.2017 17:45 25,7 C 60 % 1008,8 hPa 0,0 l/m 7,1 km/h (2 Bft) O 83 0 min 207 W/m 17,3 C 25,5 C 14,5 km/h (3 Bft)
19.07.2017 17:48 25,6 C 59 % 1008,8 hPa 0,0 l/m 6,1 km/h (2 Bft) O-NO 78 0 min 221 W/m 17,0 C 25,6 C 12,9 km/h (3 Bft)
19.07.2017 17:51 25,6 C 61 % 1008,8 hPa 0,0 l/m 6,0 km/h (2 Bft) N-NO 21 0 min 239 W/m 17,5 C 25,6 C 16,1 km/h (3 Bft)
19.07.2017 17:54 25,5 C 59 % 1008,7 hPa 0,0 l/m 7,3 km/h (2 Bft) NO 44 0 min 271 W/m 16,9 C 25,3 C 16,1 km/h (3 Bft)
19.07.2017 17:57 25,5 C 60 % 1008,7 hPa 0,0 l/m 4,8 km/h (1 Bft) NO 41 0 min 229 W/m 17,2 C 25,5 C 12,9 km/h (3 Bft)
19.07.2017 18:00 25,4 C 61 % 1008,7 hPa 0,0 l/m 4,2 km/h (1 Bft) O-NO 71 0 min 190 W/m 17,3 C 25,4 C 14,5 km/h (3 Bft)
19.07.2017 18:03 25,4 C 61 % 1008,7 hPa 0,0 l/m 5,7 km/h (2 Bft) SO 134 0 min 243 W/m 17,3 C 25,4 C 12,9 km/h (3 Bft)
19.07.2017 18:06 25,4 C 62 % 1008,6 hPa 0,0 l/m 6,0 km/h (2 Bft) O-SO 111 0 min 151 W/m 17,6 C 25,4 C 16,1 km/h (3 Bft)
19.07.2017 18:09 25,3 C 63 % 1008,5 hPa 0,0 l/m 4,7 km/h (1 Bft) S-SO 155 0 min 139 W/m 17,7 C 25,3 C 14,5 km/h (3 Bft)
19.07.2017 18:12 25,2 C 61 % 1008,4 hPa 0,0 l/m 5,5 km/h (2 Bft) O-NO 77 0 min 125 W/m 17,1 C 25,2 C 14,5 km/h (3 Bft)
19.07.2017 18:15 25,1 C 62 % 1008,3 hPa 0,0 l/m 5,7 km/h (2 Bft) O 98 0 min 128 W/m 17,3 C 25,1 C 17,7 km/h (3 Bft)
19.07.2017 18:18 25,0 C 63 % 1008,1 hPa 0,0 l/m 5,2 km/h (1 Bft) O 101 0 min 142 W/m 17,5 C 25,0 C 12,9 km/h (3 Bft)
19.07.2017 18:21 24,9 C 63 % 1008,0 hPa 0,0 l/m 6,0 km/h (2 Bft) O 81 0 min 155 W/m 17,4 C 24,9 C 17,7 km/h (3 Bft)
19.07.2017 18:24 24,9 C 63 % 1008,0 hPa 0,0 l/m 5,6 km/h (2 Bft) NW 313 0 min 213 W/m 17,4 C 24,9 C 16,1 km/h (3 Bft)
19.07.2017 18:27 25,0 C 62 % 1008,2 hPa 0,0 l/m 5,2 km/h (1 Bft) N-NW 341 0 min 162 W/m 17,2 C 25,0 C 12,9 km/h (3 Bft)
19.07.2017 18:30 25,1 C 62 % 1008,3 hPa 0,0 l/m 5,4 km/h (2 Bft) N 10 0 min 158 W/m 17,3 C 25,1 C 14,5 km/h (3 Bft)
19.07.2017 18:33 25,1 C 64 % 1008,2 hPa 0,0 l/m 5,0 km/h (1 Bft) O-NO 67 0 min 139 W/m 17,8 C 25,1 C 12,9 km/h (3 Bft)
19.07.2017 18:36 24,9 C 64 % 1008,2 hPa 0,0 l/m 5,4 km/h (2 Bft) O 95 0 min 127 W/m 17,6 C 24,9 C 11,3 km/h (2 Bft)
19.07.2017 18:39 24,8 C 65 % 1008,2 hPa 0,0 l/m 3,3 km/h (1 Bft) N-NO 17 0 min 121 W/m 17,8 C 24,8 C 8,0 km/h (2 Bft)
19.07.2017 18:42 24,8 C 64 % 1008,2 hPa 0,0 l/m 5,6 km/h (2 Bft) N-NO 28 0 min 107 W/m 17,5 C 24,8 C 17,7 km/h (3 Bft)
19.07.2017 18:45 24,8 C 66 % 1008,2 hPa 0,0 l/m 4,5 km/h (1 Bft) O 83 0 min 100 W/m 18,0 C 24,8 C 11,3 km/h (2 Bft)
19.07.2017 18:48 24,7 C 66 % 1008,1 hPa 0,0 l/m 3,7 km/h (1 Bft) N 5 0 min 81 W/m 17,9 C 24,7 C 11,3 km/h (2 Bft)
19.07.2017 18:51 24,6 C 68 % 1008,1 hPa 0,0 l/m 4,7 km/h (1 Bft) N-NO 16 0 min 62 W/m 18,3 C 24,6 C 11,3 km/h (2 Bft)
19.07.2017 18:54 24,4 C 69 % 1008,1 hPa 0,0 l/m 5,9 km/h (2 Bft) N-NO 32 0 min 47 W/m 18,3 C 24,4 C 17,7 km/h (3 Bft)
19.07.2017 18:57 24,3 C 69 % 1008,2 hPa 0,0 l/m 6,1 km/h (2 Bft) O-SO 112 0 min 44 W/m 18,2 C 24,3 C 20,9 km/h (4 Bft)
19.07.2017 19:00 24,2 C 70 % 1008,1 hPa 0,0 l/m 5,4 km/h (2 Bft) NO 43 0 min 39 W/m 18,4 C 24,2 C 14,5 km/h (3 Bft)
19.07.2017 19:03 24,1 C 71 % 1008,1 hPa 0,0 l/m 4,4 km/h (1 Bft) NO 40 0 min 35 W/m 18,5 C 24,1 C 9,7 km/h (2 Bft)
19.07.2017 19:06 23,9 C 71 % 1008,2 hPa 0,0 l/m 3,4 km/h (1 Bft) O-SO 113 0 min 26 W/m 18,3 C 23,9 C 8,0 km/h (2 Bft)
19.07.2017 19:09 23,9 C 72 % 1008,2 hPa 0,0 l/m 5,7 km/h (2 Bft) SO 136 0 min 21 W/m 18,5 C 23,9 C 14,5 km/h (3 Bft)
19.07.2017 19:12 23,8 C 72 % 1008,3 hPa 0,0 l/m 3,8 km/h (1 Bft) NO 53 0 min 19 W/m 18,4 C 23,8 C 11,3 km/h (2 Bft)
19.07.2017 19:15 23,8 C 73 % 1008,2 hPa 0,0 l/m 3,8 km/h (1 Bft) O-SO 105 0 min 19 W/m 18,7 C 23,8 C 6,4 km/h (2 Bft)
19.07.2017 19:18 23,7 C 73 % 1008,1 hPa 0,0 l/m 4,8 km/h (1 Bft) N-NW 346 0 min 19 W/m 18,6 C 23,7 C 12,9 km/h (3 Bft)
19.07.2017 19:21 23,7 C 74 % 1008,0 hPa 0,0 l/m 5,1 km/h (1 Bft) O-NO 70 0 min 21 W/m 18,8 C 23,7 C 9,7 km/h (2 Bft)
19.07.2017 19:24 23,6 C 74 % 1007,9 hPa 0,0 l/m 5,0 km/h (1 Bft) NO 49 0 min 28 W/m 18,7 C 23,6 C 12,9 km/h (3 Bft)
19.07.2017 19:27 23,5 C 74 % 1007,9 hPa 0,0 l/m 4,9 km/h (1 Bft) N-NO 18 0 min 28 W/m 18,6 C 23,5 C 14,5 km/h (3 Bft)
19.07.2017 19:30 23,4 C 73 % 1007,8 hPa 0,0 l/m 5,3 km/h (1 Bft) N-NO 26 0 min 26 W/m 18,3 C 23,4 C 14,5 km/h (3 Bft)
19.07.2017 19:33 23,3 C 73 % 1007,7 hPa 0,0 l/m 6,3 km/h (2 Bft) SO 136 0 min 25 W/m 18,2 C 23,3 C 17,7 km/h (3 Bft)
19.07.2017 19:36 23,3 C 74 % 1007,8 hPa 0,0 l/m 8,2 km/h (2 Bft) NO 37 0 min 16 W/m 18,4 C 22,8 C 25,7 km/h (4 Bft)
19.07.2017 19:39 23,4 C 75 % 1007,8 hPa 0,0 l/m 5,5 km/h (2 Bft) O-SO 113 0 min 12 W/m 18,7 C 23,4 C 14,5 km/h (3 Bft)
19.07.2017 19:42 23,3 C 75 % 1007,8 hPa 0,0 l/m 5,8 km/h (2 Bft) N 11 0 min 7 W/m 18,6 C 23,3 C 12,9 km/h (3 Bft)
19.07.2017 19:45 23,2 C 75 % 1007,8 hPa 0,0 l/m 7,0 km/h (2 Bft) NO 41 0 min 7 W/m 18,5 C 23,0 C 14,5 km/h (3 Bft)
19.07.2017 19:48 23,0 C 75 % 1008,0 hPa 0,0 l/m 4,4 km/h (1 Bft) SO 132 0 min 7 W/m 18,3 C 23,0 C 9,7 km/h (2 Bft)
19.07.2017 19:51 22,9 C 74 % 1008,0 hPa 0,0 l/m 6,0 km/h (2 Bft) SO 141 0 min 5 W/m 18,0 C 22,9 C 14,5 km/h (3 Bft)
19.07.2017 19:54 22,9 C 74 % 1008,2 hPa 0,0 l/m 5,1 km/h (1 Bft) N 360 0 min 5 W/m 18,0 C 22,9 C 9,7 km/h (2 Bft)
19.07.2017 19:57 22,9 C 74 % 1008,5 hPa 0,0 l/m 3,6 km/h (1 Bft) NW 323 0 min 0 W/m 18,0 C 22,9 C 9,7 km/h (2 Bft)
19.07.2017 20:00 23,0 C 74 % 1008,8 hPa 0,0 l/m 7,8 km/h (2 Bft) NW 317 0 min 0 W/m 18,1 C 22,6 C 14,5 km/h (3 Bft)
19.07.2017 20:03 23,1 C 75 % 1008,6 hPa 0,0 l/m 7,7 km/h (2 Bft) NW 315 0 min 0 W/m 18,4 C 22,7 C 19,3 km/h (3 Bft)
19.07.2017 20:06 23,1 C 76 % 1008,5 hPa 0,0 l/m 9,0 km/h (2 Bft) N 5 0 min 0 W/m 18,6 C 22,3 C 24,1 km/h (4 Bft)
19.07.2017 20:09 22,9 C 76 % 1008,7 hPa 0,0 l/m 11,0 km/h (2 Bft) N-NO 22 0 min 0 W/m 18,4 C 21,6 C 22,5 km/h (4 Bft)
19.07.2017 20:12 22,8 C 77 % 1009,0 hPa 0,0 l/m 14,3 km/h (3 Bft) N-NW 345 0 min 0 W/m 18,5 C 20,8 C 27,4 km/h (5 Bft)
19.07.2017 20:15 22,8 C 79 % 1009,2 hPa 0,0 l/m 16,3 km/h (3 Bft) N-NW 327 0 min 0 W/m 19,0 C 20,4 C 30,6 km/h (5 Bft)
19.07.2017 20:18 22,7 C 81 % 1009,3 hPa 0,0 l/m 12,0 km/h (2 Bft) N-NO 13 0 min 0 W/m 19,3 C 21,1 C 24,1 km/h (4 Bft)
19.07.2017 20:21 22,4 C 82 % 1009,4 hPa 0,8 l/m 13,9 km/h (3 Bft) N-NW 344 0 min 0 W/m 19,2 C 20,4 C 22,5 km/h (4 Bft)
19.07.2017 20:24 22,2 C 83 % 1009,4 hPa 1,8 l/m 13,4 km/h (3 Bft) N-NW 348 0 min 0 W/m 19,2 C 20,2 C 29,0 km/h (5 Bft)
19.07.2017 20:27 21,8 C 84 % 1009,3 hPa 1,2 l/m 14,7 km/h (3 Bft) N-NO 31 0 min 0 W/m 19,0 C 19,5 C 24,1 km/h (4 Bft)
19.07.2017 20:30 21,4 C 85 % 1009,3 hPa 0,2 l/m 12,3 km/h (2 Bft) W-NW 292 0 min 0 W/m 18,8 C 19,6 C 20,9 km/h (4 Bft)
19.07.2017 20:33 21,1 C 87 % 1009,1 hPa 0,2 l/m 10,7 km/h (2 Bft) O 84 0 min 0 W/m 18,8 C 19,7 C 19,3 km/h (3 Bft)
19.07.2017 20:36 20,8 C 88 % 1008,9 hPa 0,0 l/m 10,1 km/h (2 Bft) N 5 0 min 0 W/m 18,7 C 19,5 C 24,1 km/h (4 Bft)
19.07.2017 20:39 20,6 C 88 % 1008,7 hPa 0,0 l/m 11,1 km/h (2 Bft) NW 306 0 min 0 W/m 18,5 C 19,0 C 25,7 km/h (4 Bft)
19.07.2017 20:42 20,4 C 89 % 1008,5 hPa 0,0 l/m 11,1 km/h (2 Bft) N-NO 19 0 min 0 W/m 18,5 C 18,7 C 22,5 km/h (4 Bft)
19.07.2017 20:45 20,2 C 90 % 1008,4 hPa 0,0 l/m 11,3 km/h (2 Bft) NW 313 0 min 0 W/m 18,5 C 18,5 C 20,9 km/h (4 Bft)
19.07.2017 20:48 20,1 C 90 % 1008,5 hPa 0,0 l/m 12,9 km/h (3 Bft) N-NW 330 0 min 0 W/m 18,4 C 17,9 C 24,1 km/h (4 Bft)
19.07.2017 20:51 20,1 C 91 % 1008,9 hPa 0,0 l/m 10,7 km/h (2 Bft) W 281 0 min 0 W/m 18,6 C 18,5 C 27,4 km/h (5 Bft)
19.07.2017 20:54 20,0 C 91 % 1009,8 hPa 0,0 l/m 12,9 km/h (3 Bft) W-NW 290 0 min 0 W/m 18,5 C 17,8 C 20,9 km/h (4 Bft)
19.07.2017 20:57 20,0 C 92 % 1010,7 hPa 0,0 l/m 17,5 km/h (3 Bft) W-NW 302 0 min 0 W/m 18,7 C 16,7 C 27,4 km/h (5 Bft)
19.07.2017 21:00 19,9 C 92 % 1011,1 hPa 0,2 l/m 13,6 km/h (3 Bft) NW 309 0 min 0 W/m 18,6 C 17,5 C 30,6 km/h (5 Bft)
19.07.2017 21:03 19,8 C 92 % 1011,6 hPa 0,2 l/m 18,8 km/h (3 Bft) N-NW 340 0 min 0 W/m 18,5 C 16,2 C 30,6 km/h (5 Bft)
19.07.2017 21:06 19,7 C 92 % 1011,8 hPa 0,8 l/m 18,0 km/h (3 Bft) N 5 0 min 0 W/m 18,4 C 16,2 C 30,6 km/h (5 Bft)
19.07.2017 21:09 19,6 C 93 % 1011,5 hPa 0,8 l/m 10,9 km/h (2 Bft) N 351 0 min 0 W/m 18,4 C 17,9 C 19,3 km/h (3 Bft)
19.07.2017 21:12 19,6 C 93 % 1011,3 hPa 1,2 l/m 12,3 km/h (2 Bft) N-NW 347 0 min 0 W/m 18,4 C 17,5 C 27,4 km/h (5 Bft)
19.07.2017 21:15 19,5 C 93 % 1011,2 hPa 0,6 l/m 14,3 km/h (3 Bft) N-NW 338 0 min 0 W/m 18,3 C 16,8 C 25,7 km/h (4 Bft)
19.07.2017 21:18 19,3 C 93 % 1011,0 hPa 0,2 l/m 11,3 km/h (2 Bft) N-NO 15 0 min 0 W/m 18,1 C 17,4 C 25,7 km/h (4 Bft)
19.07.2017 21:21 19,3 C 93 % 1010,9 hPa 0,4 l/m 10,4 km/h (2 Bft) N-NW 338 0 min 0 W/m 18,1 C 17,7 C 22,5 km/h (4 Bft)
19.07.2017 21:24 19,2 C 93 % 1010,8 hPa 0,0 l/m 11,5 km/h (2 Bft) N-NO 27 0 min 0 W/m 18,0 C 17,3 C 24,1 km/h (4 Bft)
19.07.2017 21:27 19,2 C 93 % 1010,8 hPa 0,4 l/m 11,6 km/h (2 Bft) N-NO 26 0 min 0 W/m 18,0 C 17,2 C 20,9 km/h (4 Bft)
19.07.2017 21:30 19,1 C 93 % 1010,7 hPa 0,2 l/m 10,1 km/h (2 Bft) W-SW 250 0 min 0 W/m 17,9 C 17,6 C 27,4 km/h (5 Bft)
19.07.2017 21:33 19,1 C 93 % 1010,7 hPa 0,2 l/m 8,6 km/h (2 Bft) O-NO 61 0 min 0 W/m 17,9 C 18,2 C 25,7 km/h (4 Bft)
19.07.2017 21:36 19,1 C 93 % 1010,7 hPa 0,2 l/m 11,0 km/h (2 Bft) N 355 0 min 0 W/m 17,9 C 17,3 C 20,9 km/h (4 Bft)
19.07.2017 21:39 18,9 C 94 % 1010,7 hPa 0,2 l/m 9,5 km/h (2 Bft) W-NW 301 0 min 0 W/m 17,9 C 17,6 C 22,5 km/h (4 Bft)
19.07.2017 21:42 18,9 C 94 % 1010,7 hPa 0,2 l/m 8,1 km/h (2 Bft) NO 34 0 min 0 W/m 17,9 C 18,2 C 14,5 km/h (3 Bft)
19.07.2017 21:45 18,9 C 94 % 1010,5 hPa 0,2 l/m 8,4 km/h (2 Bft) S 188 0 min 0 W/m 17,9 C 18,0 C 19,3 km/h (3 Bft)
19.07.2017 21:48 18,8 C 94 % 1010,4 hPa 0,2 l/m 8,0 km/h (2 Bft) N-NO 14 0 min 0 W/m 17,8 C 18,1 C 20,9 km/h (4 Bft)
19.07.2017 21:51 18,8 C 94 % 1010,4 hPa 0,2 l/m 6,2 km/h (2 Bft) NO 37 0 min 0 W/m 17,8 C 18,8 C 17,7 km/h (3 Bft)
19.07.2017 21:54 18,8 C 94 % 1010,4 hPa 0,2 l/m 8,0 km/h (2 Bft) SO 144 0 min 0 W/m 17,8 C 18,1 C 19,3 km/h (3 Bft)
19.07.2017 21:57 18,7 C 94 % 1010,3 hPa 0,2 l/m 7,0 km/h (2 Bft) N-NO 33 0 min 0 W/m 17,7 C 18,4 C 17,7 km/h (3 Bft)
19.07.2017 22:00 18,7 C 94 % 1010,3 hPa 0,2 l/m 8,2 km/h (2 Bft) N-NW 345 0 min 0 W/m 17,7 C 17,9 C 19,3 km/h (3 Bft)
19.07.2017 22:03 18,6 C 94 % 1010,2 hPa 0,2 l/m 6,0 km/h (2 Bft) NO 48 0 min 0 W/m 17,6 C 18,6 C 24,1 km/h (4 Bft)
19.07.2017 22:06 18,6 C 94 % 1010,0 hPa 0,2 l/m 6,1 km/h (2 Bft) W-SW 254 0 min 0 W/m 17,6 C 18,6 C 19,3 km/h (3 Bft)
19.07.2017 22:09 18,6 C 94 % 1009,8 hPa 0,4 l/m 8,5 km/h (2 Bft) NO 36 0 min 0 W/m 17,6 C 17,7 C 24,1 km/h (4 Bft)
19.07.2017 22:12 18,5 C 94 % 1009,6 hPa 0,2 l/m 8,3 km/h (2 Bft) W-SW 254 0 min 0 W/m 17,5 C 17,6 C 19,3 km/h (3 Bft)
19.07.2017 22:15 18,5 C 94 % 1009,5 hPa 0,0 l/m 8,2 km/h (2 Bft) N-NO 29 0 min 0 W/m 17,5 C 17,7 C 20,9 km/h (4 Bft)
19.07.2017 22:18 18,4 C 94 % 1009,5 hPa 0,2 l/m 8,5 km/h (2 Bft) S-SO 153 0 min 0 W/m 17,4 C 17,5 C 25,7 km/h (4 Bft)
19.07.2017 22:21 18,4 C 95 % 1009,6 hPa 0,4 l/m 8,0 km/h (2 Bft) NO 35 0 min 0 W/m 17,6 C 17,7 C 27,4 km/h (5 Bft)
19.07.2017 22:24 18,4 C 95 % 1009,5 hPa 0,0 l/m 9,0 km/h (2 Bft) O-NO 58 0 min 0 W/m 17,6 C 17,3 C 20,9 km/h (4 Bft)
19.07.2017 22:27 18,4 C 95 % 1009,3 hPa 0,2 l/m 6,2 km/h (2 Bft) O-SO 122 0 min 0 W/m 17,6 C 18,4 C 17,7 km/h (3 Bft)
19.07.2017 22:30 18,4 C 95 % 1009,2 hPa 0,0 l/m 6,2 km/h (2 Bft) O-SO 117 0 min 0 W/m 17,6 C 18,4 C 14,5 km/h (3 Bft)
19.07.2017 22:33 18,4 C 95 % 1009,1 hPa 0,0 l/m 7,8 km/h (2 Bft) O 96 0 min 0 W/m 17,6 C 17,8 C 17,7 km/h (3 Bft)
19.07.2017 22:36 18,4 C 95 % 1009,0 hPa 0,0 l/m 5,9 km/h (2 Bft) SO 127 0 min 0 W/m 17,6 C 18,4 C 17,7 km/h (3 Bft)
19.07.2017 22:39 18,4 C 95 % 1008,9 hPa 0,2 l/m 7,5 km/h (2 Bft) NO 53 0 min 0 W/m 17,6 C 17,9 C 19,3 km/h (3 Bft)
19.07.2017 22:42 18,4 C 95 % 1008,8 hPa 0,0 l/m 6,8 km/h (2 Bft) SO 129 0 min 0 W/m 17,6 C 18,2 C 14,5 km/h (3 Bft)
19.07.2017 22:45 18,4 C 95 % 1008,7 hPa 0,0 l/m 5,7 km/h (2 Bft) O-SO 103 0 min 0 W/m 17,6 C 18,4 C 14,5 km/h (3 Bft)
19.07.2017 22:48 18,4 C 95 % 1008,7 hPa 0,0 l/m 6,2 km/h (2 Bft) S-SO 148 0 min 0 W/m 17,6 C 18,4 C 16,1 km/h (3 Bft)
19.07.2017 22:51 18,3 C 95 % 1008,7 hPa 0,0 l/m 6,7 km/h (2 Bft) N-NW 344 0 min 0 W/m 17,5 C 18,2 C 14,5 km/h (3 Bft)
19.07.2017 22:54 18,3 C 95 % 1008,6 hPa 0,0 l/m 5,7 km/h (2 Bft) O-NO 63 0 min 0 W/m 17,5 C 18,3 C 12,9 km/h (3 Bft)
19.07.2017 22:57 18,3 C 95 % 1008,5 hPa 0,0 l/m 6,6 km/h (2 Bft) O 89 0 min 0 W/m 17,5 C 18,2 C 14,5 km/h (3 Bft)
19.07.2017 23:00 18,3 C 95 % 1008,3 hPa 0,0 l/m 6,6 km/h (2 Bft) SO 134 0 min 0 W/m 17,5 C 18,2 C 19,3 km/h (3 Bft)
19.07.2017 23:03 18,3 C 95 % 1008,4 hPa 0,0 l/m 6,3 km/h (2 Bft) N-NO 17 0 min 0 W/m 17,5 C 18,3 C 16,1 km/h (3 Bft)
19.07.2017 23:06 18,3 C 95 % 1008,3 hPa 0,0 l/m 4,7 km/h (1 Bft) NO 49 0 min 0 W/m 17,5 C 18,3 C 14,5 km/h (3 Bft)
19.07.2017 23:09 18,2 C 95 % 1008,3 hPa 0,0 l/m 6,1 km/h (2 Bft) SO 126 0 min 0 W/m 17,4 C 18,2 C 19,3 km/h (3 Bft)
19.07.2017 23:12 18,2 C 95 % 1008,4 hPa 0,0 l/m 6,5 km/h (2 Bft) S 171 0 min 0 W/m 17,4 C 18,2 C 16,1 km/h (3 Bft)
19.07.2017 23:15 18,2 C 95 % 1008,4 hPa 0,0 l/m 5,9 km/h (2 Bft) N 355 0 min 0 W/m 17,4 C 18,2 C 16,1 km/h (3 Bft)
19.07.2017 23:18 18,2 C 95 % 1008,4 hPa 0,0 l/m 4,4 km/h (1 Bft) N-NO 17 0 min 0 W/m 17,4 C 18,2 C 16,1 km/h (3 Bft)
19.07.2017 23:21 18,2 C 95 % 1008,3 hPa 0,0 l/m 6,1 km/h (2 Bft) S-SW 198 0 min 0 W/m 17,4 C 18,2 C 14,5 km/h (3 Bft)
19.07.2017 23:24 18,2 C 95 % 1008,3 hPa 0,0 l/m 5,7 km/h (2 Bft) O-NO 60 0 min 0 W/m 17,4 C 18,2 C 20,9 km/h (4 Bft)
19.07.2017 23:27 18,2 C 95 % 1008,2 hPa 0,0 l/m 6,2 km/h (2 Bft) NO 53 0 min 0 W/m 17,4 C 18,2 C 16,1 km/h (3 Bft)
19.07.2017 23:30 18,2 C 95 % 1008,1 hPa 0,0 l/m 6,6 km/h (2 Bft) S-SW 198 0 min 0 W/m 17,4 C 18,1 C 16,1 km/h (3 Bft)
19.07.2017 23:33 18,2 C 95 % 1008,1 hPa 0,0 l/m 6,9 km/h (2 Bft) NO 40 0 min 0 W/m 17,4 C 18,0 C 20,9 km/h (4 Bft)
19.07.2017 23:36 18,3 C 96 % 1008,1 hPa 0,0 l/m 8,4 km/h (2 Bft) S-SO 152 0 min 0 W/m 17,6 C 17,4 C 16,1 km/h (3 Bft)
19.07.2017 23:39 18,4 C 96 % 1008,1 hPa 0,0 l/m 8,4 km/h (2 Bft) SO 134 0 min 0 W/m 17,7 C 17,5 C 16,1 km/h (3 Bft)
19.07.2017 23:42 18,4 C 96 % 1008,0 hPa 0,0 l/m 7,0 km/h (2 Bft) O-SO 117 0 min 0 W/m 17,7 C 18,1 C 14,5 km/h (3 Bft)
19.07.2017 23:45 18,4 C 96 % 1008,1 hPa 0,0 l/m 5,8 km/h (2 Bft) S-SO 152 0 min 0 W/m 17,7 C 18,4 C 17,7 km/h (3 Bft)
19.07.2017 23:48 18,4 C 96 % 1008,1 hPa 0,0 l/m 7,6 km/h (2 Bft) O 94 0 min 0 W/m 17,7 C 17,8 C 16,1 km/h (3 Bft)
19.07.2017 23:51 18,4 C 96 % 1008,1 hPa 0,0 l/m 7,9 km/h (2 Bft) O-SO 107 0 min 0 W/m 17,7 C 17,7 C 17,7 km/h (3 Bft)
19.07.2017 23:54 18,4 C 96 % 1008,1 hPa 0,0 l/m 5,2 km/h (1 Bft) O-SO 119 0 min 0 W/m 17,7 C 18,4 C 12,9 km/h (3 Bft)
19.07.2017 23:57 18,4 C 96 % 1008,1 hPa 0,0 l/m 9,1 km/h (2 Bft) S 190 0 min 0 W/m 17,7 C 17,2 C 24,1 km/h (4 Bft)
_ Min-Zeit 05:15 14:33 19:33 - 00:15 - - - - 04:42 06:48 00:09
Minimum _ 14,3 C 56 % 1007,7 hPa - 1,0 km/h (0 Bft) - - - - 12,1 C 13,7 C 3,2 km/h (1 Bft)
_ Max-Zeit 16:54 23:36 00:24 20:24 21:03 - - 08:30 13:21 20:18 14:21 20:15
Maximum _ 26,7 C 96 % 1017,4 hPa 1,8 l/m 18,8 km/h
N-NW (3 Bft)
- - 3 min 872 W/m 19,3 C 26,6 C 30,6 km/h
N (5 Bft)
Durchschnitt _ 20,0 C 79 % 1012,7 hPa #13,2 l/m 5,8 km/h (2 Bft) O - #8:12 h 347 W/m 15,9 C 19,7 C 14,7 km/h (3 Bft)
2017 Cux-Wetter.de -Die Nutzung der Wetterdaten nur mit ausdrcklicher Genehmigung